GFSSGP_sfc_rhum_057.txt.gz
RH
68 62 75 91 100 91 75 74 69 73 68 49 44 52 60 65 62 76 61 65 58 56 65 63 82 78 77 78 79 79 78 78 78 77 76 75 74 76 75 73 71 71 72 68 68 69 66 69 70
65 66 83 94 98 76 68 68 83 67 55 44 54 54 59 77 71 80 75 62 54 52 55 57 83 80 77 78 79 78 76 76 77 76 76 75 74 73 73 73 71 70 71 70 68 68 68 68 69
63 64 97 91 82 76 89 67 60 51 51 48 63 61 68 81 73 67 60 56 52 56 57 60 82 80 77 77 76 77 76 77 76 77 76 74 73 73 72 73 71 70 69 68 68 69 69 68 68
69 92 91 88 75 76 86 60 52 55 49 51 61 76 68 65 64 59 60 55 51 56 52 69 79 75 78 78 74 77 77 76 76 77 75 74 73 73 74 71 69 68 69 68 68 68 67 67 69
70 81 76 80 77 71 58 56 61 57 63 58 61 84 89 74 64 61 63 54 53 51 54 56 81 76 76 78 74 76 77 75 76 75 74 73 72 70 69 70 70 68 69 68 69 66 66 68 68
96 71 73 81 66 56 52 60 54 56 63 66 67 72 87 71 70 65 58 54 52 54 50 55 77 77 77 78 74 77 78 77 75 74 73 74 74 72 70 70 70 70 68 68 68 66 67 67 68
78 72 68 61 62 60 58 61 55 58 65 65 58 73 90 75 65 61 58 58 53 52 54 55 64 68 74 77 74 76 77 76 74 73 75 75 74 73 72 70 70 67 65 65 66 67 68 68 70
70 60 66 60 63 60 55 63 51 54 62 50 52 73 91 74 63 60 61 61 56 54 54 59 61 54 59 58 73 74 75 75 75 75 75 74 72 71 71 73 73 67 64 63 64 67 69 71 73
56 69 66 53 56 58 55 59 55 48 58 53 53 54 54 66 64 63 70 66 58 59 57 55 57 63 68 64 63 72 74 74 74 71 76 74 63 59 56 70 70 68 67 66 65 67 68 69 69
73 76 59 42 45 56 58 54 54 57 58 65 64 57 61 65 67 65 66 64 58 63 59 56 61 62 63 55 65 67 61 56 60 64 70 64 67 64 56 63 75 71 70 68 68 66 69 59 45
60 72 56 44 42 50 50 55 49 56 63 62 70 75 70 65 64 59 56 53 52 58 58 61 66 69 65 64 64 62 61 62 65 74 69 69 66 64 54 58 54 55 65 48 51 53 45 52 46
70 60 58 48 41 44 46 43 52 51 49 50 58 63 63 62 62 56 54 55 56 62 64 61 66 72 69 64 62 62 62 62 60 64 70 72 63 66 64 56 59 61 57 61 61 55 60 58 56
63 58 50 46 43 41 41 45 53 53 51 52 57 60 60 57 58 52 53 59 60 65 68 63 69 75 75 76 66 64 66 60 58 64 60 64 64 69 61 64 60 64 59 57 61 57 54 56 59
45 49 47 43 41 39 41 40 48 59 53 59 62 61 57 55 57 53 56 61 67 69 66 63 70 73 74 72 78 70 66 62 61 61 57 68 65 70 59 63 62 62 59 57 56 58 54 52 50
34 44 35 35 40 44 34 43 46 56 56 63 62 61 57 56 53 54 55 60 66 67 65 66 68 68 75 75 73 67 61 56 59 60 70 66 67 73 72 65 63 62 66 69 66 63 60 48 48
22 29 44 35 33 32 35 45 50 55 57 63 62 60 59 57 54 54 54 56 60 62 69 68 57 62 68 69 69 61 57 57 58 59 61 66 70 74 75 65 63 65 63 61 81 78 52 49 47
27 18 34 41 29 37 37 44 54 54 54 60 62 60 58 58 56 57 55 57 56 62 69 70 66 63 66 72 65 63 63 60 58 58 59 69 69 68 68 64 65 71 62 60 60 57 56 51 48
20 22 30 38 33 32 38 41 60 56 54 58 61 59 59 57 55 54 55 56 57 60 65 68 64 69 72 68 72 61 57 58 59 59 59 68 66 69 69 68 69 66 72 76 64 70 62 59 66
23 26 20 30 30 32 35 35 59 59 55 60 60 59 57 55 49 50 53 54 56 62 66 69 71 74 70 67 63 61 58 59 59 61 68 70 68 70 75 64 69 74 70 76 70 62 66 58 63
21 27 27 22 26 34 36 36 44 60 58 55 57 56 55 50 49 53 54 52 54 61 66 71 72 75 74 64 67 61 63 59 58 61 68 67 68 71 71 74 69 73 63 76 70 66 51 53 54
20 22 25 25 24 25 35 35 41 54 55 55 50 49 47 48 48 53 56 53 53 60 67 70 75 75 74 72 67 71 68 66 62 63 63 66 68 69 74 74 70 73 86 80 73 64 61 50 57
18 16 22 24 25 33 29 41 40 42 63 60 55 53 46 46 45 46 52 54 52 57 60 67 72 75 72 77 71 78 60 60 56 59 59 64 70 68 70 74 73 76 78 86 68 63 61 59 53
16 13 14 19 27 26 26 39 32 38 57 57 53 51 50 48 45 45 46 50 48 51 56 60 72 78 75 79 75 68 69 57 58 56 69 72 74 70 67 73 74 75 75 84 73 73 73 57 50
14 18 17 14 17 34 30 28 31 35 45 48 49 48 49 48 49 50 48 48 49 48 53 58 73 79 77 76 76 79 76 70 63 63 59 57 57 62 72 69 74 75 72 75 71 74 74 69 61
18 18 25 30 22 28 24 30 29 24 28 32 44 48 47 48 48 50 53 52 53 54 56 59 71 77 75 74 74 76 75 78 77 72 59 61 55 57 69 76 77 69 76 72 74 78 75 73 62
22 20 21 35 22 15 21 33 27 20 18 26 29 34 41 46 45 47 50 52 55 55 58 60 68 75 74 72 76 77 76 59 59 65 54 54 50 53 63 70 70 72 72 71 75 67 64 70 66
24 25 16 20 27 22 13 22 21 20 20 18 20 33 40 44 45 46 47 49 52 54 58 63 67 71 71 66 73 77 76 74 64 70 69 56 65 52 62 64 68 69 70 73 75 65 72 72 72
23 19 27 25 31 31 19 20 21 26 24 21 21 29 35 40 43 43 45 46 47 48 51 56 61 68 67 66 66 67 71 74 70 70 73 68 63 66 60 66 66 67 70 72 77 67 71 76 65
28 27 24 22 24 26 23 20 17 21 24 24 23 24 26 34 40 41 42 43 46 44 48 51 56 64 64 65 66 67 66 66 69 68 70 71 67 70 69 70 68 68 69 71 76 76 70 76 75
40 33 23 31 37 29 25 19 16 18 18 18 17 22 24 30 36 38 39 41 43 45 46 48 51 52 57 62 68 68 67 68 66 70 68 71 73 69 69 69 70 68 67 68 74 72 64 72 74

GFSSGP_sfc_rhum_060.txt.gz
RH
59 46 48 77 99 85 64 55 42 53 46 38 34 44 43 46 55 72 44 48 44 48 50 59 80 77 77 78 78 78 77 76 75 75 74 74 75 75 74 72 70 72 68 68 68 67 69 69 67
41 48 74 90 89 77 70 53 55 41 36 34 39 40 40 59 50 53 52 45 43 40 39 50 83 80 78 79 78 77 76 77 77 76 75 74 74 73 73 70 70 71 71 68 68 67 67 70 68
45 48 92 84 77 72 84 51 48 56 36 38 51 44 46 61 51 47 42 42 40 37 36 58 80 80 79 78 77 76 75 75 76 75 75 72 71 72 72 70 68 70 68 69 70 68 68 69 69
51 66 70 74 60 55 77 45 37 41 36 37 44 56 51 51 46 40 40 37 37 33 34 70 77 75 78 76 76 76 76 76 76 75 74 74 71 70 68 68 68 68 68 67 68 68 70 70 67
52 71 79 69 63 57 49 43 37 40 40 42 42 60 82 56 47 40 39 35 33 30 36 52 80 77 76 73 77 77 76 76 75 75 74 74 71 70 69 68 67 68 68 68 67 66 66 68 68
78 60 56 68 62 43 38 45 41 42 42 47 47 54 74 59 50 43 36 33 29 30 33 50 74 77 77 74 77 76 75 74 74 72 72 72 72 73 72 71 70 68 67 68 65 67 70 68 70
80 51 52 41 40 41 41 42 40 41 46 50 42 53 68 60 52 40 34 30 29 29 33 44 44 66 76 74 77 76 76 74 73 72 71 74 72 71 70 68 66 65 65 64 65 70 71 69 72
62 41 48 40 50 47 39 41 35 40 44 36 38 56 74 56 54 40 33 31 32 31 33 44 42 42 52 51 75 76 76 75 74 71 73 72 71 69 68 72 67 63 63 63 65 70 68 68 71
47 47 45 38 39 42 40 53 40 39 43 42 40 40 42 49 53 42 37 35 35 34 34 36 34 44 50 52 60 72 74 75 74 71 77 70 40 44 48 68 65 65 64 64 65 68 68 69 69
49 48 39 30 33 42 42 41 43 42 43 45 45 39 43 52 56 46 40 38 37 37 34 33 37 42 44 37 56 54 50 44 44 45 53 43 47 48 45 60 70 66 66 66 66 66 66 71 40
40 48 39 33 34 34 43 38 35 39 45 42 47 47 49 56 49 43 38 36 34 35 34 35 42 48 44 46 43 42 41 43 48 57 52 51 46 46 40 45 44 44 57 37 48 50 43 42 39
38 35 38 33 31 35 35 33 37 36 36 34 39 44 49 50 42 38 36 35 33 37 37 37 43 51 47 44 41 40 40 40 41 47 61 58 49 50 46 40 44 49 39 47 41 37 46 44 44
34 33 35 34 31 30 32 34 38 38 37 36 41 45 47 44 39 36 34 32 33 37 37 39 46 56 55 55 43 41 43 40 40 49 53 46 43 49 45 49 42 43 41 39 42 41 41 47 43
23 23 29 31 31 29 32 30 35 38 38 41 45 45 42 40 37 37 36 34 36 38 38 39 47 56 55 55 59 51 45 44 44 43 46 60 63 53 45 48 44 42 39 38 38 42 37 38 37
17 27 23 26 31 32 29 33 33 38 40 45 45 44 41 39 37 39 37 38 37 38 40 42 47 49 58 58 59 51 45 39 42 42 55 55 57 62 56 46 45 42 48 53 47 46 43 32 33
14 16 22 21 28 30 29 33 30 36 39 46 44 43 42 40 38 37 36 36 38 41 46 45 37 43 53 55 56 45 42 41 40 42 46 53 58 63 68 57 44 47 46 40 40 71 35 33 33
10 12 16 31 25 27 29 30 35 34 35 43 45 43 42 42 40 38 35 36 38 44 49 49 46 45 50 56 51 48 52 46 42 42 43 58 57 58 63 49 48 70 50 39 38 38 39 36 34
11 12 12 26 27 26 29 29 36 36 35 41 44 42 43 42 41 37 36 36 37 44 48 50 45 50 55 51 55 44 43 45 44 44 44 57 52 57 58 48 68 54 45 42 39 49 41 43 40
13 11 12 19 24 27 28 27 36 37 36 41 44 43 43 42 39 38 38 37 37 42 49 53 54 58 54 49 46 45 44 46 45 43 52 58 55 60 64 47 62 68 48 46 54 51 55 56 73
12 17 17 13 20 32 27 26 24 36 36 37 42 42 40 39 39 40 40 38 37 43 49 56 58 61 61 46 49 42 45 41 42 44 54 55 56 59 56 59 55 64 49 57 59 57 41 40 42
13 12 15 16 16 26 28 28 26 28 34 34 35 36 36 37 38 41 42 39 38 43 50 55 62 62 62 56 48 54 51 50 51 49 47 51 55 56 60 62 60 72 56 47 61 54 52 40 44
12 9 10 16 20 23 23 31 29 25 35 36 35 36 35 36 36 38 39 40 38 41 46 54 60 64 61 62 56 67 52 47 40 43 40 45 56 55 57 61 61 64 51 61 53 48 47 49 44
13 8 10 11 18 20 21 28 24 22 30 36 34 33 31 33 33 35 37 40 37 39 42 50 62 68 66 68 64 55 60 40 38 39 55 60 61 57 52 61 62 71 50 58 62 65 64 42 37
11 12 11 11 10 19 20 22 24 24 25 24 30 30 32 30 32 34 34 37 39 38 40 47 64 73 70 67 66 68 66 56 44 51 47 44 42 48 59 57 63 65 62 59 56 61 65 56 51
13 13 18 18 13 10 12 19 21 17 18 19 22 28 29 31 31 33 35 36 40 42 44 46 60 73 69 66 65 64 64 66 63 59 49 50 39 39 52 64 66 58 70 61 63 77 66 63 58
17 14 15 25 14 10 8 16 17 15 15 16 18 22 26 28 28 32 35 36 39 42 44 47 56 70 66 65 71 70 70 49 50 55 43 42 38 38 47 58 57 60 58 60 63 53 52 57 58
18 19 12 12 11 11 8 8 10 13 15 16 18 19 22 25 28 31 35 37 39 41 46 50 57 64 62 57 67 71 68 65 52 59 55 43 52 38 46 50 58 56 57 60 65 52 60 59 61
20 14 18 16 25 25 14 13 9 18 18 17 17 16 19 21 26 28 32 35 38 37 39 45 50 59 57 55 58 58 59 64 62 57 62 57 48 54 48 53 54 54 55 58 65 55 60 65 54
20 22 20 15 16 20 19 13 9 12 14 17 16 16 15 21 26 27 29 32 35 36 38 41 46 53 54 53 56 56 54 54 59 57 58 60 57 56 61 57 55 53 56 58 64 64 55 62 65
23 24 19 23 28 18 17 12 8 10 9 12 14 14 14 16 20 25 26 30 32 37 36 37 41 43 48 50 59 58 56 56 52 59 58 60 63 58 61 59 59 54 52 56 62 61 52 59 61

GFSSGP_sfc_rhum_063.txt.gz
RH
59 40 39 73 88 69 70 60 40 40 42 35 28 35 48 44 60 81 44 50 45 48 49 58 79 76 76 76 76 75 74 75 75 74 74 75 74 75 72 69 73 68 70 68 67 69 68 67 70
36 36 54 76 77 73 74 41 46 39 30 29 33 32 40 50 40 53 55 48 42 38 40 46 82 80 77 76 77 77 76 76 76 75 74 74 74 72 71 69 71 70 69 68 67 68 72 67 72
57 39 76 80 65 92 70 46 37 33 29 32 38 39 42 52 45 44 40 41 38 32 33 54 80 80 78 77 76 76 76 76 76 74 73 72 74 72 72 69 70 68 70 71 68 69 70 70 68
47 57 69 77 63 42 70 46 36 43 32 34 36 48 44 38 40 40 37 34 29 28 33 68 77 77 76 77 76 75 75 76 75 74 72 71 70 69 68 68 68 68 68 69 70 69 68 67 68
49 67 72 59 47 43 39 43 36 34 34 35 36 54 55 45 39 37 37 31 25 27 37 51 79 77 76 76 75 74 75 74 75 74 73 71 70 68 68 68 68 68 67 70 67 68 68 67 68
85 56 72 59 49 33 38 33 33 33 35 36 42 52 59 43 42 39 35 31 22 26 33 46 75 75 75 77 76 76 74 73 72 73 71 71 72 72 71 70 68 67 67 66 66 67 67 68 68
82 61 73 70 45 40 39 32 36 46 36 39 37 58 56 45 43 36 34 24 24 25 33 42 50 66 73 77 75 75 74 74 74 73 72 72 70 70 69 68 67 65 63 66 67 65 68 70 72
50 49 44 48 38 56 30 34 32 45 37 30 34 53 67 49 41 35 29 23 23 26 30 38 42 47 49 59 75 74 75 73 71 70 72 72 69 65 64 72 67 64 63 65 65 66 67 70 71
48 58 49 36 34 48 30 34 30 28 34 32 32 41 43 44 38 37 28 26 25 26 28 29 31 41 49 54 65 73 74 74 72 69 70 68 44 46 50 68 66 63 63 64 64 65 68 70 71
54 62 58 60 29 38 34 32 33 34 33 36 37 39 42 40 41 39 29 29 27 28 26 26 32 35 38 35 57 54 51 44 44 43 53 75 61 58 42 58 65 65 65 64 65 67 86 65 47
31 53 32 31 33 28 29 35 28 40 34 32 40 50 51 42 40 34 28 28 26 26 25 26 34 40 34 45 41 38 44 36 41 48 51 43 42 47 38 46 47 48 63 43 50 74 64 57 63
29 24 31 38 34 30 31 28 30 38 41 26 32 41 47 44 37 31 28 28 27 28 27 26 34 41 37 35 45 50 33 32 36 42 50 53 78 67 68 64 43 49 79 50 41 66 42 59 83
25 28 29 30 28 28 34 26 32 33 27 27 31 39 47 41 37 29 27 26 27 28 28 30 38 47 46 51 59 36 33 30 36 44 48 77 70 65 66 43 83 57 54 56 44 37 41 46 43
16 19 27 30 27 28 28 26 25 32 28 32 35 39 42 37 35 31 29 29 29 30 30 32 40 48 46 60 63 40 34 54 41 61 44 52 78 68 45 62 59 61 93 70 54 52 51 53 67
14 19 19 22 32 31 23 41 26 30 30 36 36 38 41 38 32 31 29 29 29 29 31 36 41 44 50 67 48 42 38 42 57 58 54 49 61 53 66 62 87 42 48 56 47 47 33 34 53
14 15 20 18 22 26 25 37 24 28 31 37 36 36 40 37 30 30 28 27 29 30 35 38 32 41 47 51 49 40 36 41 60 48 45 51 52 53 69 45 56 46 72 70 79 37 53 29 35
9 15 16 16 14 23 26 44 61 26 28 35 36 35 36 38 33 32 28 28 29 32 38 40 39 43 48 54 48 48 48 61 60 62 60 54 54 58 66 46 68 66 51 58 47 70 56 38 31
10 10 10 15 23 23 27 42 85 30 26 34 35 34 35 34 34 32 30 29 29 33 39 41 39 50 56 52 53 42 42 49 58 64 67 55 53 52 56 72 53 48 48 75 68 45 52 49 63
7 7 10 11 28 25 28 34 85 28 24 34 36 34 34 34 32 31 30 29 30 35 41 46 50 60 52 48 47 43 41 41 52 49 48 52 51 53 60 80 55 54 51 79 48 44 47 37 68
8 9 10 9 13 27 28 31 31 26 26 30 34 34 33 32 33 33 32 30 30 37 43 52 56 63 58 48 51 44 44 37 37 37 50 50 50 54 52 66 63 65 55 54 55 60 70 68 48
9 10 10 12 10 18 25 36 30 50 25 27 28 30 29 32 32 34 35 32 31 38 44 54 60 64 63 58 50 49 46 44 39 47 44 48 50 52 54 57 82 57 54 54 57 55 63 70 39
12 8 8 9 14 17 18 35 66 44 30 28 28 30 29 29 32 34 35 34 32 35 40 52 59 65 62 64 53 65 47 44 38 41 38 44 51 51 52 57 58 64 50 83 56 46 54 66 47
12 8 8 8 9 15 16 23 36 32 42 27 26 28 27 28 28 32 34 35 32 33 37 43 62 68 65 67 63 51 59 40 36 34 59 59 62 52 47 56 64 62 52 59 58 57 64 43 46
10 10 10 8 8 12 16 17 23 28 30 23 24 25 26 26 27 29 31 33 34 32 34 42 62 72 70 68 68 68 66 58 38 43 44 42 43 47 53 51 69 61 56 59 56 62 60 71 52
12 12 16 16 13 12 8 14 18 17 23 22 21 23 24 25 27 28 31 32 36 37 38 42 60 72 71 67 65 65 65 67 64 58 42 48 35 34 58 61 64 67 67 58 60 69 62 61 54
14 12 15 25 15 11 9 10 12 12 14 21 25 22 21 23 23 26 29 32 36 38 40 43 56 71 69 66 70 70 68 46 45 52 40 38 33 34 56 57 54 57 59 58 67 57 55 62 57
15 16 10 12 10 11 8 7 5 9 12 19 40 21 24 22 22 25 27 29 33 37 42 46 54 65 67 60 68 72 68 62 48 57 58 43 50 34 40 47 56 53 53 57 66 52 65 68 63
14 12 15 14 25 23 12 12 8 9 11 12 16 16 19 21 22 22 25 27 30 32 35 41 47 60 62 59 61 62 64 66 59 59 63 58 51 54 46 51 50 54 56 57 67 56 59 64 54
14 18 18 14 13 19 18 12 8 9 9 12 12 15 15 19 19 20 22 25 27 28 32 36 42 51 56 57 60 59 58 57 61 58 60 61 57 58 59 58 56 55 56 58 67 67 56 66 68
10 12 11 20 27 15 15 12 7 7 6 10 11 13 13 14 17 18 19 23 27 31 31 32 36 39 47 52 59 59 59 56 55 61 59 62 66 60 60 62 61 58 54 59 64 61 53 57 58

GFSSGP_sfc_rhum_069.txt.gz
RH
74 67 63 72 99 99 90 79 46 48 46 41 43 51 63 66 60 86 80 66 66 74 76 76 81 78 78 79 80 78 78 77 76 75 76 76 73 74 73 72 73 68 72 70 70 72 72 72 73
61 54 65 93 99 96 89 87 70 47 43 39 46 50 56 70 60 77 72 62 61 70 76 77 83 80 78 78 80 78 76 77 77 77 76 75 73 73 72 72 73 70 70 71 69 70 72 73 75
55 49 90 97 93 96 95 84 71 41 41 47 50 49 56 71 60 63 58 58 60 67 71 75 80 81 76 77 78 79 77 77 76 75 74 75 73 72 70 72 72 72 70 71 72 69 71 73 72
65 76 87 92 94 76 78 75 61 49 45 46 52 67 54 50 57 56 53 53 57 67 74 81 79 78 76 78 78 78 77 76 77 76 74 74 73 72 71 71 72 71 70 70 69 68 70 68 69
65 84 95 94 89 66 55 56 57 46 50 58 57 68 67 57 51 50 50 45 62 70 79 79 82 80 78 77 78 77 77 76 76 76 73 74 71 71 71 69 71 71 70 70 68 68 69 68 66
86 88 97 90 80 49 58 55 50 50 49 56 63 66 68 51 53 50 43 51 61 70 77 76 79 79 79 77 76 76 76 76 76 75 73 73 71 71 70 69 71 69 68 69 69 68 68 68 66
80 90 88 77 70 73 72 37 48 52 51 57 53 73 62 55 48 43 43 51 55 66 76 80 80 76 77 77 76 76 76 75 76 75 76 75 74 72 70 69 69 67 66 67 68 68 69 69 66
68 84 80 78 92 81 80 65 39 47 49 42 47 73 73 53 46 41 42 47 57 65 73 74 84 84 86 83 75 76 76 76 75 74 74 75 70 69 69 76 73 67 65 66 68 69 71 68 67
46 82 86 80 79 68 62 65 38 45 53 46 46 53 52 46 45 41 41 51 56 60 65 67 74 82 88 86 76 78 75 75 76 76 73 76 82 75 72 74 71 67 66 66 68 68 69 68 68
51 86 68 51 61 71 58 66 43 51 48 51 53 50 47 47 48 42 47 52 55 60 61 59 66 76 76 65 87 89 79 85 88 89 84 87 83 80 74 73 71 66 67 70 65 72 76 77 82
39 57 48 48 62 75 56 69 84 46 61 56 64 56 50 49 48 37 46 46 49 52 52 56 63 70 70 73 85 86 86 85 84 80 82 86 79 79 82 90 80 81 78 80 76 88 86 80 85
41 32 33 49 47 53 73 81 84 77 69 52 48 49 50 50 49 36 37 42 42 43 53 56 60 65 66 75 78 75 71 82 80 75 86 89 84 84 82 90 93 97 94 88 91 93 87 85 82
32 28 26 28 43 52 70 68 73 77 58 47 48 48 50 48 46 33 33 32 38 43 52 55 65 59 60 74 78 77 74 80 76 84 91 94 92 85 85 94 95 93 93 87 94 92 83 89 79
24 21 21 30 42 54 65 77 63 58 57 53 50 51 48 47 46 33 35 33 39 42 46 52 67 65 69 72 73 72 72 66 71 82 71 79 91 87 90 83 83 94 94 75 89 85 82 78 68
19 19 16 22 47 44 59 88 84 88 65 59 51 49 47 45 42 37 37 34 39 44 46 56 64 58 73 68 65 71 65 59 72 76 83 80 86 88 86 94 81 91 84 70 74 82 73 70 68
22 18 24 17 24 35 49 84 86 87 74 56 50 48 47 46 42 39 35 34 43 48 52 51 45 66 72 66 78 69 72 77 73 75 83 80 83 84 87 90 80 80 84 75 67 70 75 66 74
28 26 22 18 15 23 41 87 91 82 84 72 52 49 46 45 40 40 33 34 43 51 53 54 56 68 71 70 73 71 65 78 74 74 76 76 76 85 88 90 90 83 87 80 70 71 68 66 71
32 23 18 17 16 16 44 83 75 68 80 78 59 52 50 48 44 38 32 34 45 50 56 62 57 70 75 78 73 76 74 76 78 81 75 84 82 87 93 93 88 84 84 86 82 59 74 69 58
19 20 18 13 12 18 40 77 68 63 63 77 81 56 52 51 44 40 32 35 48 52 54 66 70 69 81 86 84 81 78 77 81 80 79 80 84 80 82 91 90 91 74 79 78 82 68 62 67
18 19 19 14 10 33 65 77 66 63 67 73 92 57 50 49 44 38 33 36 46 55 53 68 69 72 78 80 82 76 76 79 72 74 81 80 80 84 85 88 89 88 80 87 84 79 77 77 71
16 21 18 17 11 31 64 78 74 56 58 67 82 79 50 46 43 39 35 39 46 54 59 64 75 75 76 75 81 83 79 83 77 81 76 84 77 79 85 86 89 89 90 88 84 79 74 71 77
20 13 12 11 14 21 27 63 82 68 68 71 78 77 62 46 41 38 37 40 46 51 56 65 77 74 76 74 74 82 72 66 78 67 80 80 75 78 80 84 84 89 88 86 83 80 77 77 77
15 13 13 14 16 20 13 22 82 58 74 69 62 55 62 58 39 40 40 37 45 50 55 63 79 72 66 76 68 79 79 76 73 68 70 84 85 79 76 84 87 88 88 89 84 85 86 78 84
11 13 15 16 22 27 17 18 92 72 62 63 51 47 59 51 44 38 37 39 43 50 51 63 78 73 71 76 87 79 77 78 68 68 82 76 85 84 80 86 86 90 90 88 88 82 79 87 89
14 31 33 35 30 28 18 19 15 59 50 55 53 58 51 55 44 39 40 40 41 50 55 60 69 81 71 74 74 91 77 79 83 87 75 68 83 84 82 87 87 89 88 88 88 88 89 88 87
21 21 32 38 35 28 19 23 18 34 46 46 53 51 54 78 71 50 40 39 40 49 55 59 65 70 72 69 69 82 87 73 83 82 79 64 68 67 77 86 81 84 85 86 90 85 89 87 91
24 29 20 25 20 26 23 18 13 12 39 49 49 48 70 72 68 71 59 38 41 46 51 59 66 65 72 72 66 73 90 71 79 77 80 75 71 69 76 80 79 85 86 87 91 88 90 89 92
18 18 26 29 36 39 28 25 26 21 24 45 43 60 66 73 81 77 82 72 48 40 47 52 65 67 70 70 68 66 73 81 81 77 80 76 67 71 82 78 78 84 85 85 91 86 89 87 87
18 23 27 29 34 37 32 27 18 17 20 28 42 61 59 65 75 84 86 84 83 67 47 50 63 68 70 67 71 65 64 75 85 76 72 81 74 83 81 83 86 86 87 85 90 86 88 88 91
15 19 20 39 37 38 41 32 14 13 13 34 37 49 53 58 69 78 83 80 77 66 45 45 53 66 68 69 67 71 65 68 70 84 79 78 77 79 82 77 78 81 82 84 90 83 77 88 85

GFSSGP_sfc_rhum_072.txt.gz
RH
76 72 72 80 96 98 96 89 62 56 50 44 46 49 66 75 69 85 85 78 77 79 81 79 81 78 76 78 78 77 78 77 75 78 76 74 76 75 74 71 73 71 72 70 71 72 72 74 74
73 64 71 95 100 97 98 90 62 55 53 51 52 52 62 79 72 90 87 75 75 79 86 83 84 81 76 79 79 78 78 76 78 77 76 73 75 75 73 70 69 72 72 69 74 73 72 73 74
65 55 91 98 94 97 91 88 59 51 47 49 56 57 63 86 77 83 72 71 74 80 83 80 80 80 77 76 77 78 76 76 76 76 75 73 75 71 74 72 71 73 73 70 70 71 72 72 70
65 84 90 96 91 74 78 67 53 60 54 58 58 71 61 59 68 68 65 71 77 78 78 79 79 76 76 78 77 77 76 76 75 75 75 73 72 71 73 71 72 70 70 70 68 71 71 70 71
74 86 96 92 87 71 56 61 63 57 66 58 58 73 78 68 61 63 67 67 79 83 82 78 82 80 78 76 76 77 76 76 76 75 74 74 73 71 71 72 71 71 70 69 69 68 68 71 72
89 89 96 91 85 62 54 59 58 65 60 61 67 72 82 62 65 63 64 72 77 87 87 80 80 80 79 78 78 77 76 76 76 75 73 72 73 71 70 70 70 69 69 69 69 68 68 69 69
83 91 93 79 79 78 69 66 61 64 63 64 57 78 76 67 60 57 67 71 78 84 86 87 83 77 77 77 77 76 76 77 76 74 74 73 71 71 71 71 69 68 67 68 68 68 70 69 67
74 87 84 88 87 79 67 67 49 58 58 50 52 78 80 64 56 63 68 73 81 85 85 94 91 91 90 80 76 76 77 77 76 75 77 74 73 70 69 75 72 66 66 67 68 70 71 72 69
50 90 88 80 70 64 63 74 59 54 58 52 55 56 53 54 54 63 71 78 84 83 88 94 92 95 94 88 77 78 76 75 74 76 73 79 87 80 75 74 70 66 67 67 68 70 71 69 69
70 91 71 53 56 77 68 72 70 65 62 56 64 51 48 51 56 66 73 82 84 86 83 88 90 94 91 73 90 92 82 93 92 91 90 93 90 89 78 73 69 67 68 69 72 73 74 80 84
57 72 54 52 56 62 70 84 80 75 70 66 71 58 53 53 52 61 65 70 77 77 73 80 85 87 87 86 98 98 94 93 90 87 87 91 84 91 94 96 88 88 79 85 76 86 90 80 86
55 43 43 40 55 65 78 83 90 86 81 63 56 51 52 54 49 58 61 64 72 73 66 71 79 82 85 90 92 91 89 92 92 90 92 92 92 94 93 96 95 93 94 88 90 87 88 85 83
42 38 34 30 46 66 70 74 84 84 77 62 53 50 53 54 50 50 51 55 64 65 63 68 75 78 82 89 96 94 88 92 85 92 93 90 93 93 92 97 94 93 94 90 90 89 87 87 76
33 30 27 21 63 67 66 72 62 68 64 64 57 55 53 52 48 49 48 51 58 56 61 66 71 76 81 86 85 87 79 82 91 84 89 90 96 90 96 91 84 93 94 92 93 91 87 86 74
29 28 20 44 57 61 66 82 79 80 60 65 57 55 54 52 51 43 43 45 52 57 59 65 67 75 71 78 72 79 78 75 81 76 76 80 90 92 90 96 92 92 93 91 95 92 86 84 72
26 28 26 30 56 61 61 92 88 75 69 66 57 52 52 55 51 40 37 44 51 53 59 64 54 68 72 76 79 74 76 82 80 82 85 82 90 91 92 91 87 89 96 84 88 90 88 80 80
34 41 31 21 43 62 67 92 86 80 78 67 57 52 52 55 52 44 36 46 48 51 63 65 68 72 70 80 76 75 77 82 84 86 87 83 86 89 94 93 93 86 90 79 72 76 75 79 77
40 38 27 23 16 51 74 90 84 87 78 69 60 56 51 52 52 44 39 47 48 50 56 64 67 74 74 81 80 80 79 87 86 85 85 88 94 87 92 93 89 90 91 91 75 74 80 76 74
27 29 26 20 17 17 54 87 88 88 76 78 73 68 52 51 48 43 37 48 49 50 56 63 76 78 82 88 87 84 85 87 93 87 81 86 86 85 88 94 92 92 82 86 70 82 70 74 74
28 28 27 20 18 56 88 95 88 85 83 78 72 69 54 51 48 48 37 51 51 52 56 65 68 79 80 82 85 81 80 83 81 88 88 85 84 81 86 89 92 88 82 89 84 81 77 79 75
32 32 26 23 46 62 68 83 79 69 74 81 71 69 58 50 49 50 37 51 51 55 63 66 70 75 82 80 87 85 85 88 87 86 86 88 85 84 88 89 93 90 93 90 82 78 74 73 79
41 20 16 17 19 22 47 80 80 76 88 88 82 76 74 55 46 46 41 50 55 53 60 65 72 75 80 80 86 85 88 88 83 82 82 86 86 85 84 86 91 91 93 91 88 82 79 76 78
27 19 17 20 22 24 21 28 58 70 86 87 88 74 68 59 46 45 42 42 50 52 56 72 74 76 74 72 72 80 82 78 85 79 84 90 89 86 81 86 91 94 91 89 90 90 86 79 83
15 18 20 24 26 31 25 20 55 86 65 70 79 75 65 57 49 43 40 42 47 53 53 73 75 75 80 77 80 81 83 81 90 76 82 90 87 90 86 87 90 93 92 92 90 89 88 92 93
18 26 35 35 31 32 26 24 21 55 57 55 67 72 60 57 54 44 44 48 49 54 56 69 76 76 74 80 82 82 79 80 83 83 76 78 93 95 90 93 92 92 92 92 92 92 90 89 90
27 25 33 38 38 34 25 29 19 29 44 42 47 57 56 58 73 56 46 45 50 52 57 61 75 74 71 72 78 91 80 78 82 87 73 71 72 75 84 84 87 88 90 90 93 92 93 93 92
25 33 25 31 47 34 30 24 19 19 39 50 51 57 63 68 56 56 71 59 56 53 55 60 69 68 70 68 67 75 87 84 80 84 87 77 67 71 84 85 82 87 88 91 94 91 92 94 93
21 20 26 35 46 48 35 32 28 22 36 47 56 55 62 74 68 67 72 72 73 62 57 56 61 65 71 67 64 64 73 88 78 82 83 85 77 79 85 86 81 86 90 90 94 93 92 94 92
26 26 26 36 39 45 42 33 31 38 53 50 56 50 52 70 64 68 78 78 77 72 57 58 59 62 70 70 66 63 65 74 93 80 76 82 81 77 80 81 81 84 90 91 95 92 90 93 92
23 31 34 40 35 45 47 41 28 38 40 48 60 46 54 62 57 73 70 68 76 73 65 55 60 62 62 68 68 66 63 68 82 91 80 80 82 86 88 84 82 83 86 88 91 90 84 92 93

GFSSGP_sfc_rhum_075.txt.gz
RH
79 75 77 85 94 98 95 82 71 65 58 53 46 51 64 77 75 88 87 79 81 80 85 80 81 76 76 78 79 79 77 75 76 78 75 76 74 74 72 75 71 70 72 71 72 73 73 73 74
78 72 80 96 100 96 96 81 83 66 51 47 56 61 70 89 82 90 92 79 71 84 90 87 84 79 77 78 78 78 76 75 78 76 74 77 74 74 69 71 73 71 71 73 72 72 71 73 73
74 63 93 98 96 94 94 82 71 67 47 52 72 75 72 91 82 81 83 74 75 88 92 87 80 79 78 79 78 78 76 77 77 76 73 75 74 75 72 71 72 72 71 74 72 70 71 70 74
68 86 93 98 93 73 75 73 58 62 63 59 74 84 72 69 74 80 74 72 85 89 87 80 79 77 76 76 76 76 75 76 76 75 73 75 72 72 72 71 71 72 71 70 70 70 70 70 69
78 89 98 96 87 70 58 67 77 74 69 62 60 81 87 76 72 74 76 75 87 91 86 81 80 76 77 78 77 76 75 75 76 75 74 72 72 73 71 70 71 69 68 69 69 70 69 72 69
94 89 97 93 80 66 57 64 76 74 68 67 73 78 88 75 77 78 74 81 80 88 88 86 79 78 76 76 77 76 76 76 77 75 75 73 72 72 72 71 70 70 67 67 68 68 71 72 70
86 95 91 88 74 77 75 67 76 69 66 68 60 87 89 81 75 74 79 82 82 87 93 92 86 78 77 78 77 77 76 76 75 74 73 75 71 70 72 71 69 68 67 67 67 69 70 69 69
77 90 83 94 93 81 75 74 69 62 67 52 57 89 93 79 71 76 81 89 94 93 93 96 94 92 90 85 76 75 77 75 74 74 73 71 70 70 72 75 72 67 67 67 68 71 71 69 71
59 90 90 78 73 71 74 79 66 65 64 54 58 63 70 67 74 82 90 92 91 92 98 97 97 96 95 90 71 78 76 75 74 74 74 80 89 81 84 74 69 68 68 68 69 69 67 68 70
80 90 74 58 56 75 72 87 86 93 67 63 68 60 62 73 78 86 92 90 92 94 98 98 97 97 95 77 92 94 84 93 93 92 91 95 93 90 79 73 68 68 70 73 70 68 71 77 82
71 81 59 56 58 71 86 90 82 84 78 67 70 70 66 74 76 82 84 88 92 94 92 97 97 97 95 93 98 99 98 96 93 92 94 93 91 95 95 96 89 92 81 86 80 87 90 82 86
62 48 57 53 57 61 73 78 90 83 86 73 58 63 67 70 74 75 76 83 90 88 89 91 94 97 95 98 99 98 97 96 95 92 93 96 97 96 96 96 94 95 95 90 92 91 93 89 86
49 44 38 38 39 68 73 70 73 80 82 74 54 56 63 66 69 65 69 72 81 82 81 87 92 95 94 97 98 98 96 96 92 95 95 94 96 96 93 95 94 93 94 91 92 92 91 89 81
38 39 37 31 69 70 70 73 65 70 81 82 58 57 58 58 62 62 66 72 78 74 76 81 89 90 91 97 96 97 93 95 95 94 94 89 94 94 96 95 90 94 95 94 93 89 88 88 82
36 42 27 67 72 70 62 73 74 73 69 79 62 55 56 54 56 59 60 68 72 68 69 79 85 84 90 93 91 90 86 95 90 87 89 88 94 93 95 95 89 90 94 91 94 92 88 86 78
29 32 32 67 63 69 64 94 85 79 82 73 64 55 56 57 53 51 53 60 64 63 69 74 65 78 84 86 83 84 84 89 85 83 84 85 91 90 92 94 92 89 94 89 88 96 95 85 81
36 44 39 29 63 70 74 91 82 79 82 76 64 58 56 58 56 50 47 52 57 62 69 74 74 78 81 81 89 84 84 87 86 87 86 85 88 91 93 94 95 94 94 83 84 92 82 84 82
44 42 36 29 58 65 81 88 86 82 76 73 64 57 56 58 58 44 42 46 55 61 66 68 75 79 81 86 85 85 85 91 91 90 89 89 93 89 93 94 93 93 94 94 81 80 84 81 82
34 33 32 27 19 23 78 84 85 86 85 77 71 63 56 55 53 41 43 48 54 60 67 68 76 81 87 88 89 89 89 93 95 95 91 91 92 89 92 94 93 94 83 90 73 84 76 79 81
35 35 36 25 33 48 93 93 86 83 82 80 74 67 56 53 54 46 49 49 53 62 66 70 70 78 82 82 88 84 87 90 96 96 90 93 88 88 89 92 94 93 82 90 87 80 80 82 80
44 39 36 30 36 76 80 91 91 78 82 82 78 68 58 52 52 47 52 54 53 60 66 71 69 77 80 82 86 92 90 89 92 92 93 91 85 82 87 90 94 91 91 91 84 80 74 73 82
50 30 26 23 24 26 64 97 88 79 82 78 84 75 65 50 47 50 52 56 53 55 60 66 71 75 82 85 84 86 88 91 88 88 88 92 90 88 90 89 91 92 96 92 87 82 79 76 77
33 27 25 22 25 28 31 39 72 78 89 86 86 73 66 60 48 52 48 53 53 52 57 63 71 75 78 81 74 85 90 86 85 85 85 92 94 87 85 88 91 93 93 92 92 91 84 82 82
20 27 24 29 29 31 26 24 38 96 78 73 82 75 69 66 63 49 44 51 53 52 58 64 72 74 79 77 83 84 83 85 89 91 89 94 96 96 91 89 91 94 94 92 93 90 91 92 92
22 28 36 36 34 32 32 26 24 58 64 61 69 74 70 63 62 51 50 50 55 56 60 67 72 75 78 78 79 81 81 83 84 89 89 92 97 96 94 93 95 95 93 92 93 94 92 92 93
30 26 35 37 40 34 34 29 22 20 24 45 53 62 66 64 66 57 50 45 52 55 58 68 72 71 75 75 79 82 80 78 82 88 87 85 85 83 86 93 92 91 92 92 94 96 94 94 93
28 37 36 38 50 34 34 26 24 35 43 51 59 61 73 70 60 59 58 49 50 55 57 66 72 69 71 71 73 83 82 82 82 88 89 86 83 77 88 91 92 90 91 93 94 96 94 95 94
24 23 31 38 44 45 37 35 47 48 54 59 65 63 64 70 64 63 58 55 53 51 53 56 66 69 69 68 68 72 82 86 86 85 92 91 87 83 87 94 93 93 93 92 95 95 93 94 96
33 35 38 40 45 46 46 48 32 52 56 72 74 72 63 63 66 64 61 66 60 52 52 55 60 65 69 68 67 66 72 92 94 87 84 85 90 86 86 92 93 92 91 94 96 95 94 94 94
24 36 42 46 45 46 52 54 26 25 44 62 74 74 68 66 68 68 66 72 79 59 54 55 58 62 65 66 66 66 66 73 92 91 85 84 84 87 85 86 92 89 87 92 95 95 91 94 94

GFSSGP_sfc_rhum_078.txt.gz
RH
78 78 78 86 95 99 93 80 67 72 67 58 50 57 66 76 74 90 92 76 81 85 88 81 80 75 76 78 79 76 74 74 77 75 76 74 72 72 74 70 72 74 72 73 72 72 74 74 74
81 76 83 97 100 97 95 80 83 72 56 51 65 65 76 93 82 94 94 81 75 89 92 88 84 78 77 77 77 76 73 76 76 74 76 74 74 70 74 72 73 72 72 72 72 71 73 72 73
78 68 95 99 96 95 95 82 78 64 50 62 76 79 78 86 80 84 87 75 85 92 94 89 80 78 77 76 76 76 73 75 76 74 74 74 75 71 69 73 70 71 74 73 71 71 71 70 71
76 90 96 94 94 75 78 71 67 67 62 71 74 91 80 72 73 86 73 79 91 95 91 82 77 76 77 77 77 76 76 76 77 73 75 72 73 72 72 72 72 71 72 72 70 71 71 69 71
85 94 98 94 85 72 60 74 69 75 76 75 72 87 92 82 81 77 76 83 94 97 91 81 79 76 75 75 76 75 75 75 78 73 72 72 72 71 70 70 70 69 68 71 70 71 70 71 72
94 93 96 94 81 66 66 72 70 72 71 78 80 83 95 84 83 80 78 88 86 91 90 85 77 76 76 76 76 75 74 77 76 74 73 72 73 71 71 71 68 66 66 68 68 71 70 70 72
94 95 92 88 82 81 80 69 75 78 71 74 68 80 95 89 83 80 86 86 86 89 93 93 86 80 75 76 76 75 75 75 75 75 74 73 70 71 72 70 70 64 62 67 70 70 71 71 72
81 94 87 91 94 90 82 77 71 70 78 59 62 88 94 91 83 88 87 93 97 97 96 96 93 91 90 87 76 75 76 74 73 72 74 71 70 72 71 74 71 65 65 67 69 70 69 72 72
61 97 86 74 73 84 81 90 95 72 69 55 58 69 77 82 85 92 88 87 89 95 98 97 96 95 94 89 80 77 75 75 74 76 73 83 91 87 81 71 69 66 66 68 71 68 67 71 71
79 93 80 60 64 74 81 87 91 80 82 70 82 77 79 83 89 82 82 80 78 86 98 98 97 96 93 79 92 92 84 92 92 92 91 94 90 86 79 72 70 68 67 68 66 67 71 78 79
77 86 63 60 64 67 77 88 85 89 88 72 89 85 87 88 88 79 80 80 77 79 92 98 98 97 94 95 97 96 96 93 92 91 92 92 88 91 95 95 89 90 82 84 78 86 87 78 77
74 52 54 59 62 72 81 85 86 84 86 73 74 76 82 89 91 90 90 92 95 82 87 98 97 98 96 98 97 96 94 92 93 91 91 94 94 94 92 93 94 94 93 87 88 84 88 84 81
58 54 46 46 51 74 70 77 78 87 85 72 68 72 80 82 84 81 83 87 94 94 96 97 97 98 97 98 98 97 95 92 88 90 92 93 95 93 91 93 93 93 92 85 89 90 86 86 78
46 46 42 40 61 74 68 68 67 75 84 74 70 74 72 76 76 76 79 88 91 89 91 94 96 96 96 98 97 96 93 94 95 91 92 90 94 95 93 90 87 92 94 88 88 86 85 83 77
40 48 42 78 75 75 64 76 72 78 81 75 74 69 70 68 70 73 73 80 84 82 84 92 96 92 95 96 95 94 91 95 91 90 89 86 92 92 92 93 86 87 93 88 92 87 83 78 75
33 35 37 81 71 72 70 85 82 78 83 79 66 65 66 67 66 65 67 73 78 78 82 87 76 87 92 94 93 90 92 91 90 87 88 88 91 90 92 90 87 85 92 87 84 86 88 91 77
39 47 40 44 70 73 81 90 78 77 79 79 65 64 63 63 64 61 61 68 73 73 80 85 85 88 89 90 93 88 88 96 92 86 84 87 90 89 94 91 92 89 90 84 81 88 81 79 77
47 42 37 34 75 77 87 89 86 86 77 83 69 61 64 63 62 57 58 62 68 71 78 80 80 88 89 89 90 89 91 91 90 87 86 88 94 90 92 90 91 90 88 90 81 83 81 80 78
37 35 38 31 24 32 76 89 89 88 88 83 76 66 64 62 59 54 54 57 63 71 80 82 84 89 88 92 91 91 90 92 95 93 88 89 92 91 92 91 93 91 84 87 78 81 78 78 78
40 40 40 28 41 50 93 96 91 92 90 85 79 70 61 60 63 53 52 53 60 69 76 82 83 89 85 87 89 87 89 90 95 95 92 91 90 91 90 92 94 92 82 88 85 81 80 79 79
50 46 40 31 34 84 86 87 88 86 84 81 82 73 62 57 61 54 51 53 59 68 74 78 81 84 85 87 90 93 93 91 94 92 93 90 89 87 89 91 95 90 89 87 85 80 77 77 78
64 33 31 32 28 27 70 77 95 82 82 81 84 83 72 59 55 53 55 56 60 64 67 74 78 82 84 89 88 90 89 90 89 89 94 92 89 87 85 89 91 92 92 90 84 79 79 79 75
37 31 31 29 29 30 38 51 71 90 94 88 81 76 72 62 54 54 54 57 58 60 65 70 78 81 83 85 86 85 90 87 88 88 90 91 92 91 86 88 91 92 92 90 89 88 85 79 80
25 24 27 31 30 33 30 30 28 90 87 80 74 69 68 65 56 54 51 57 57 58 63 70 80 81 84 84 87 88 88 88 88 89 88 88 90 91 91 90 92 92 95 92 90 88 85 88 89
24 31 41 40 36 34 33 28 42 30 38 60 64 71 72 62 62 64 53 58 60 61 65 69 80 83 86 85 85 86 85 88 87 88 87 90 91 91 92 91 91 89 94 90 91 92 90 88 88
30 30 38 39 43 34 37 30 43 46 53 60 64 66 70 67 66 61 56 54 60 61 64 66 75 78 82 84 86 87 88 80 84 87 88 87 87 86 88 92 90 91 89 89 92 87 86 88 86
33 36 38 40 55 36 37 48 38 33 46 63 69 70 76 69 68 67 63 52 59 60 64 67 72 72 77 79 83 88 88 87 83 87 87 87 88 81 86 87 89 92 93 90 92 87 94 90 92
25 29 35 40 43 44 41 57 53 34 35 46 73 77 76 75 75 68 62 56 55 55 58 63 66 69 72 75 77 78 82 84 83 86 88 89 87 86 88 89 90 92 93 93 94 91 89 90 88
32 36 39 43 48 45 60 55 34 39 51 45 75 81 82 78 77 71 66 71 55 54 57 60 65 70 70 71 74 76 82 84 87 81 84 86 88 89 88 90 90 91 93 94 95 94 90 90 91
34 40 47 40 40 54 57 44 29 59 72 78 84 84 85 80 76 74 73 80 75 64 56 58 61 66 66 70 74 74 79 85 86 84 83 85 86 89 88 88 90 89 89 92 91 91 86 89 89

GFSSGP_sfc_rhum_084.txt.gz
RH
60 40 39 62 94 77 66 54 52 53 48 37 33 33 33 32 43 59 33 34 40 41 47 55 80 76 74 75 74 75 78 76 78 73 72 70 70 70 73 72 72 72 72 74 74 74 73 73 75
36 44 52 95 91 71 64 55 60 49 39 33 34 32 37 55 46 43 40 38 40 37 38 45 82 80 76 76 74 74 76 75 77 76 76 72 75 71 69 73 70 72 72 73 73 73 74 71 74
42 47 66 80 82 58 63 58 44 42 34 37 48 40 46 59 46 36 34 38 36 37 37 54 78 78 78 76 74 76 76 74 76 75 74 70 71 72 70 71 72 73 71 72 73 71 68 69 72
45 50 56 74 70 49 58 48 41 41 40 48 42 58 54 52 34 31 34 34 34 36 35 68 77 76 76 76 74 75 75 74 74 74 73 72 73 71 71 71 72 72 71 72 72 68 73 67 71
41 57 74 65 67 49 51 44 41 43 50 54 46 63 64 43 36 33 35 32 34 32 37 48 79 76 76 76 76 76 74 73 74 74 72 72 70 70 70 71 70 71 70 70 70 73 72 68 70
66 70 68 68 58 53 54 60 44 45 50 62 51 51 70 44 37 35 33 32 30 32 34 47 75 77 77 76 75 75 73 74 74 73 75 74 71 70 68 68 70 69 69 69 70 71 69 70 74
73 68 56 54 65 64 63 65 60 52 48 59 53 53 54 39 34 33 33 32 32 32 34 42 44 63 72 74 73 74 74 74 74 75 73 72 70 71 70 65 66 67 69 69 72 73 72 72 75
60 61 55 56 58 74 72 80 78 59 56 48 39 53 53 39 35 33 34 33 35 34 36 40 40 44 51 51 74 74 75 76 74 73 72 70 70 69 68 71 70 68 68 70 70 73 70 72 74
46 66 64 52 54 67 68 80 85 75 54 51 46 38 37 35 35 36 38 37 37 38 37 35 40 48 56 53 61 71 75 74 74 71 72 66 42 42 51 70 68 69 70 70 70 71 74 74 75
55 58 49 37 42 58 68 74 83 72 62 58 50 39 37 36 39 39 39 39 39 40 35 36 42 45 46 39 55 62 53 45 44 45 52 48 46 52 46 59 69 69 68 67 70 69 66 64 41
49 57 40 37 38 45 57 70 67 72 60 56 58 52 40 39 39 38 38 38 35 38 36 40 45 48 43 47 41 43 40 43 49 55 49 48 44 46 38 44 44 46 59 38 47 46 39 44 35
50 39 35 36 40 40 48 58 66 64 68 56 56 46 39 40 37 36 37 37 37 41 41 39 45 50 45 42 38 39 40 39 40 49 57 54 44 44 42 42 48 48 38 46 43 41 51 48 47
43 36 32 29 34 38 48 53 59 62 62 58 58 42 39 37 36 34 34 34 36 43 41 41 49 56 54 54 43 41 44 36 41 43 52 44 42 49 44 47 42 42 39 40 44 45 47 47 43
31 31 29 25 23 41 46 50 53 74 63 61 48 40 36 36 34 38 37 37 38 42 43 44 49 56 53 54 59 68 43 44 39 39 49 56 44 50 46 48 44 44 41 42 43 50 44 41 40
28 28 30 30 31 44 39 52 59 75 70 69 44 40 38 36 35 40 38 37 38 40 43 47 49 49 56 60 64 67 44 39 40 41 54 56 54 59 55 47 45 44 51 55 50 47 42 38 37
26 23 26 35 38 43 41 62 60 74 80 65 46 41 41 40 36 37 35 33 37 40 48 49 39 45 51 53 54 46 42 41 41 41 46 55 58 60 60 47 43 46 47 42 42 40 38 38 38
24 30 26 43 39 40 40 56 61 69 69 64 49 41 40 41 37 36 34 33 34 40 50 52 48 46 53 60 51 49 55 48 50 42 42 57 57 60 50 43 48 55 44 42 39 40 40 40 36
28 24 20 34 38 34 32 46 60 64 54 58 49 44 41 37 34 38 36 34 33 39 47 51 49 53 58 55 58 47 47 48 46 44 42 58 57 57 54 47 54 48 42 42 40 50 42 40 40
20 21 22 30 32 25 26 36 53 63 62 57 53 46 39 33 33 36 37 36 34 38 44 52 55 61 57 52 49 52 50 48 48 46 54 56 56 60 63 45 51 49 45 52 54 49 52 39 43
22 21 20 21 20 17 23 25 43 63 59 57 56 52 40 32 34 38 38 37 35 38 43 53 57 62 60 48 51 47 49 44 51 55 57 54 56 59 60 59 50 52 44 59 59 58 40 39 40
23 21 20 20 19 22 26 36 37 44 60 55 58 47 44 36 33 39 39 38 36 36 45 51 60 62 62 56 54 60 56 55 55 54 50 52 56 59 59 59 54 58 51 43 58 55 53 38 43
22 22 19 17 16 25 24 50 49 49 63 58 57 59 43 43 40 36 37 39 36 37 38 48 57 61 60 64 58 65 49 46 42 46 44 53 56 58 58 60 60 63 46 54 54 48 48 53 40
19 20 21 18 16 15 19 21 44 59 60 59 52 61 53 42 38 39 35 38 35 37 37 41 57 64 60 65 65 56 66 42 43 40 58 62 66 61 55 59 61 63 51 59 56 60 61 42 39
19 20 20 18 15 20 15 18 33 36 46 41 40 38 46 42 39 38 35 35 36 34 37 41 56 69 69 65 68 68 61 57 46 54 49 46 45 52 61 58 62 62 57 60 56 61 62 57 51
19 16 22 26 21 17 14 18 39 35 33 39 43 40 32 42 48 40 38 36 37 37 39 41 53 67 65 62 63 65 66 64 67 58 54 48 42 42 64 64 73 58 63 60 60 63 58 59 52
19 14 15 30 20 16 17 27 30 30 34 40 42 42 39 31 35 44 44 37 38 38 40 44 49 63 63 61 65 66 66 51 50 50 40 45 40 42 49 63 57 57 58 62 64 52 49 53 52
19 19 11 13 12 13 16 28 25 30 39 46 60 63 51 44 33 39 43 37 38 39 42 46 51 58 59 56 61 66 66 64 50 53 52 43 49 40 51 55 55 55 59 64 65 49 59 58 59
16 14 17 13 25 23 19 32 30 42 52 60 76 79 73 46 45 46 36 37 37 35 37 42 46 53 56 53 54 55 59 63 61 57 59 55 45 52 49 57 57 55 60 62 66 54 59 62 50
16 16 16 12 14 17 24 23 33 50 64 70 78 82 83 79 57 48 44 47 39 35 36 38 42 48 52 51 52 53 52 54 59 57 57 58 54 55 63 63 64 56 56 60 66 60 54 60 60
16 18 18 17 24 16 15 30 36 46 54 56 68 75 75 76 71 79 80 66 52 46 39 37 38 38 43 48 57 53 53 53 52 57 55 57 60 55 58 63 66 60 56 58 63 60 49 59 60

GFSSGP_sfc_rhum_087.txt.gz
RH
59 38 40 61 82 74 73 64 42 46 44 27 22 22 27 38 48 57 32 33 34 36 47 56 78 74 74 74 76 77 74 77 73 71 69 69 69 73 70 72 72 75 74 74 74 74 73 74 74
31 30 43 88 81 74 74 49 54 43 30 25 23 25 35 46 34 33 34 33 33 33 36 46 82 76 75 73 73 76 74 75 76 74 72 75 71 70 70 71 73 73 74 73 72 69 72 74 74
45 34 86 95 64 77 71 50 43 32 27 26 30 35 40 43 30 31 30 31 33 33 37 55 78 77 74 73 74 76 74 75 75 73 70 73 72 70 71 71 72 72 73 72 68 68 70 71 72
39 60 63 98 62 50 48 42 31 38 37 30 35 49 41 29 29 29 29 28 29 35 40 66 77 75 77 74 75 75 74 75 73 74 73 71 71 71 70 72 71 71 70 68 70 68 70 71 72
40 61 78 68 60 46 38 33 33 38 36 37 40 45 41 28 26 29 28 27 28 40 38 48 78 76 75 74 76 74 73 74 73 73 71 72 70 69 70 70 72 70 69 71 71 70 70 73 74
77 63 72 65 60 47 41 58 41 40 42 42 44 49 45 30 30 28 24 28 28 28 34 47 74 76 75 75 74 73 75 74 73 72 72 70 70 68 70 70 69 69 68 67 70 69 71 76 75
66 71 64 56 57 61 55 66 62 46 45 48 39 46 41 31 29 26 25 25 27 26 31 42 46 64 74 72 74 73 74 73 73 72 71 71 71 68 69 68 68 69 67 72 69 71 72 75 75
54 63 56 45 62 66 57 80 76 54 59 43 33 42 42 32 28 25 24 26 30 28 28 51 37 40 50 53 73 74 74 73 72 71 70 71 70 69 65 74 72 68 66 69 68 70 72 74 74
38 68 58 50 53 61 58 74 78 64 48 42 36 29 28 28 26 26 27 34 30 33 31 34 36 61 54 52 62 71 71 72 73 68 69 70 54 46 56 71 69 68 66 65 66 70 72 73 72
46 63 48 38 38 51 57 72 77 64 47 45 36 27 28 28 29 28 28 31 34 32 29 52 49 46 56 34 59 54 66 52 48 41 70 76 54 48 44 62 70 69 68 67 66 66 72 72 42
42 52 37 33 34 38 52 66 59 65 62 45 39 33 30 30 29 28 27 27 27 28 36 37 49 45 39 42 44 46 61 37 38 65 73 54 46 43 38 51 48 50 64 42 58 66 66 74 31
48 36 32 30 30 34 46 50 58 56 66 42 38 31 30 31 27 26 26 26 27 31 39 44 35 39 37 34 35 31 32 33 47 50 49 62 42 37 47 59 47 73 74 48 74 38 45 45 39
44 34 25 25 28 37 40 51 56 59 51 44 40 31 30 28 26 25 26 26 29 31 31 34 39 46 45 58 66 47 35 33 39 40 49 62 56 42 39 42 45 43 43 49 50 57 50 41 53
28 27 24 20 22 33 48 45 44 58 49 50 42 32 28 26 25 27 27 29 32 32 32 35 40 46 44 55 64 46 50 34 33 38 42 46 51 63 41 54 60 69 69 78 78 76 42 61 38
25 26 22 21 24 33 33 48 57 60 50 51 40 32 28 26 25 28 27 30 31 32 34 38 41 40 48 54 55 55 34 51 38 42 49 49 49 52 52 53 66 54 48 50 44 66 45 32 41
26 24 33 23 29 32 38 69 60 71 59 46 36 30 28 27 25 27 27 26 30 33 39 40 31 38 45 52 53 70 53 58 63 38 45 49 53 53 66 57 62 42 56 64 58 47 49 47 61
24 27 35 31 30 30 46 62 53 53 61 47 38 32 29 29 28 29 26 26 30 35 42 42 39 40 45 52 48 67 52 68 66 64 65 50 51 52 73 68 52 52 63 51 60 51 62 51 48
22 23 24 34 30 26 45 48 55 54 62 60 40 39 35 32 30 28 26 25 28 35 42 44 39 46 50 48 62 71 50 59 62 69 74 52 51 51 68 69 48 56 61 54 74 62 60 62 55
14 18 24 47 23 29 38 39 59 66 59 53 50 43 42 35 27 27 27 26 27 34 43 47 48 55 50 47 43 75 48 76 68 73 51 52 60 53 59 75 50 76 53 58 47 46 51 38 38
16 16 18 31 22 21 24 37 45 47 43 49 49 47 47 35 27 33 34 27 26 33 41 49 52 59 56 45 49 42 77 74 43 46 50 58 51 53 53 67 48 64 59 56 54 60 58 43 46
18 16 18 19 18 14 18 38 47 55 45 45 47 44 46 36 29 42 39 35 28 34 39 49 55 60 58 54 48 48 53 71 44 53 46 47 50 50 58 55 91 56 75 46 57 52 58 81 34
18 13 14 16 20 22 18 34 39 49 53 49 51 51 46 40 35 38 49 42 29 31 35 47 55 58 56 59 66 66 52 50 66 57 76 49 49 55 51 53 52 59 64 78 54 44 60 55 41
13 14 15 14 16 19 21 48 80 38 53 51 53 51 44 47 31 39 38 43 32 29 34 42 56 62 61 63 76 54 61 72 72 71 68 60 60 54 48 53 55 58 60 54 71 59 61 41 43
14 15 18 16 14 17 14 22 86 39 39 37 44 51 42 45 46 37 37 43 38 28 31 38 56 66 62 61 63 67 59 66 75 58 52 43 44 49 54 53 59 61 55 56 53 57 58 62 58
17 18 24 24 20 17 11 20 60 32 31 31 35 34 35 41 49 40 51 40 40 31 32 36 52 65 62 59 60 64 62 59 59 57 51 74 57 47 63 63 66 54 62 55 57 64 61 57 53
18 15 17 29 19 13 11 28 32 28 31 34 41 35 33 27 32 49 38 42 44 39 32 35 48 61 62 61 65 66 64 50 46 53 61 48 59 38 63 58 57 56 56 56 60 53 49 56 51
18 17 8 10 10 11 18 30 29 31 36 52 66 58 47 31 32 36 39 62 43 40 37 38 46 54 57 55 61 66 65 64 49 55 52 48 52 67 52 50 55 55 54 57 61 53 56 58 57
14 12 14 12 21 19 23 31 29 38 46 66 76 72 62 48 33 38 44 58 84 41 38 36 40 49 54 53 54 55 58 61 59 52 56 51 49 46 82 55 54 55 55 56 63 61 58 59 50
15 16 14 10 11 15 26 29 28 44 55 73 77 77 76 68 65 58 77 90 71 37 42 39 37 43 48 50 52 54 52 53 58 56 55 56 53 53 51 61 55 56 56 58 64 67 55 60 62
12 14 14 16 20 12 20 35 32 36 45 62 71 72 68 66 66 72 74 87 92 78 73 87 45 36 39 45 51 50 50 51 50 57 55 57 61 54 56 55 59 58 54 57 64 58 48 53 58

GFSSGP_sfc_rhum_093.txt.gz
RH
70 63 59 72 95 98 88 69 56 50 42 34 34 43 47 40 56 85 59 64 67 76 77 75 82 76 74 74 80 76 73 71 72 71 73 75 75 75 78 76 76 76 75 74 74 74 73 70 71
58 50 61 89 98 97 86 59 57 49 44 34 41 47 57 69 56 61 64 59 66 71 74 76 81 80 80 77 79 78 76 75 78 75 74 74 73 75 75 75 76 75 76 74 74 72 72 73 71
63 51 89 98 97 94 80 57 48 40 38 35 42 42 52 65 53 52 52 57 58 62 74 76 80 80 77 76 77 77 76 73 75 75 73 74 73 72 74 74 75 73 75 74 71 70 71 70 70
63 78 94 98 96 77 62 48 37 44 38 36 40 52 46 44 48 47 47 47 55 70 78 81 78 76 77 76 74 76 76 76 75 75 73 73 71 72 74 73 73 72 71 72 71 70 67 68 71
57 82 99 95 88 56 66 60 43 49 40 40 39 53 55 46 41 42 48 56 69 77 78 76 81 78 76 75 75 76 75 75 74 75 73 73 72 72 72 71 71 72 71 71 71 70 68 68 68
81 94 96 96 76 73 77 70 46 43 38 40 48 49 56 44 43 45 49 56 64 72 76 74 77 77 77 76 75 76 76 74 75 73 73 72 71 72 72 71 72 69 69 71 72 72 71 68 67
73 95 95 88 90 76 73 68 86 43 38 42 42 53 48 44 42 44 47 51 58 64 72 78 79 75 76 75 75 75 74 74 74 73 73 74 71 72 72 70 71 69 69 70 71 71 71 70 69
69 86 90 90 85 93 83 79 82 84 56 32 36 53 54 50 40 42 48 57 57 65 70 76 81 82 85 80 75 74 74 74 73 72 71 72 71 70 71 76 74 67 68 69 70 71 70 67 66
51 88 82 73 78 87 80 74 83 76 60 38 33 39 40 41 40 42 53 52 62 59 64 70 71 83 86 85 75 76 74 75 74 74 70 78 81 76 77 74 71 68 69 70 75 75 77 69 67
73 86 67 51 60 74 68 72 77 71 67 78 38 34 31 35 40 48 52 61 68 69 60 61 70 75 79 63 85 89 78 84 89 86 83 90 83 82 73 73 69 66 71 74 63 62 72 71 80
82 88 47 50 55 59 65 73 69 77 70 43 42 38 34 36 40 42 49 53 62 65 76 66 65 68 70 80 89 87 85 83 85 83 85 84 76 80 93 96 92 95 84 92 76 85 90 85 82
86 73 48 49 50 53 60 63 74 70 76 45 34 33 35 41 39 40 45 55 57 60 64 67 62 69 67 74 94 80 81 78 80 75 80 74 82 85 97 98 96 96 95 93 94 94 90 82 68
87 48 45 41 45 51 51 59 70 80 80 59 32 33 34 40 38 36 51 56 60 58 63 63 62 70 66 78 84 77 78 72 72 73 68 74 77 89 88 96 91 96 96 96 96 94 94 76 60
38 42 48 41 47 48 54 58 56 74 68 55 33 36 34 34 36 43 50 56 55 54 56 64 65 76 74 74 68 59 69 71 67 69 73 76 81 85 93 97 93 98 96 85 95 96 91 74 56
38 44 54 41 46 49 47 64 70 66 53 38 35 33 33 32 33 41 43 52 50 51 59 60 68 67 71 70 69 78 66 66 72 70 71 74 82 86 93 96 98 98 98 93 96 92 84 64 59
39 68 76 46 48 49 56 89 64 64 60 42 36 33 33 31 40 41 34 49 47 53 55 53 49 68 73 74 81 64 73 74 71 80 74 70 73 82 87 77 89 96 94 91 88 79 79 70 68
46 61 59 57 46 50 62 82 61 60 63 49 37 36 34 30 39 41 35 42 47 50 60 56 57 69 76 77 78 74 69 74 82 77 78 71 77 84 86 90 92 88 84 90 74 82 76 77 75
37 45 46 57 77 67 72 71 69 65 53 46 41 38 36 31 37 33 36 42 48 53 60 48 62 75 73 83 78 81 77 80 77 82 88 81 82 86 90 91 89 77 79 83 82 76 76 72 70
23 31 45 69 54 75 77 74 74 68 56 48 43 38 38 34 36 34 36 45 52 56 62 60 68 80 76 86 83 86 91 79 89 87 77 79 84 78 83 92 88 84 82 81 75 79 74 80 76
20 24 69 67 64 68 80 77 69 68 55 46 52 45 38 36 36 38 40 45 51 59 64 78 72 80 73 80 83 91 92 95 93 90 81 81 84 89 87 90 87 88 86 84 80 81 85 82 72
18 22 49 53 66 80 73 85 77 67 52 54 54 48 43 43 37 42 37 48 52 60 69 79 81 78 80 91 93 95 94 92 93 91 92 78 73 78 82 86 89 84 90 89 87 76 74 79 81
21 16 25 53 57 73 59 96 86 73 77 63 55 59 53 43 45 36 35 44 52 57 63 80 81 78 77 84 86 85 87 93 92 93 90 79 74 78 82 84 78 90 87 88 92 75 83 82 83
13 27 32 36 43 65 67 86 88 81 78 71 60 57 52 41 43 36 45 41 50 54 61 74 77 80 76 82 90 93 90 92 96 96 88 88 85 76 76 85 86 85 89 85 83 80 82 90 89
10 18 31 46 56 56 54 72 97 95 78 80 59 55 53 49 51 43 42 47 50 51 58 68 83 84 84 83 85 87 88 88 94 90 93 89 92 82 78 80 89 88 87 80 84 83 81 83 88
16 25 40 54 57 53 36 62 93 76 76 74 75 77 53 61 48 45 52 51 49 50 60 67 83 88 89 86 86 84 88 86 84 82 94 90 93 90 79 85 89 95 88 85 88 88 81 86 83
21 27 39 49 44 33 32 93 81 68 61 74 80 77 78 76 76 61 51 49 51 48 59 64 79 90 87 86 88 85 87 94 86 81 88 90 92 79 84 86 87 86 84 82 86 81 87 83 86
26 27 20 29 28 34 64 74 72 61 69 74 84 80 85 87 84 78 66 49 47 50 56 64 76 76 78 88 87 92 91 89 86 82 80 80 89 88 87 86 86 84 85 83 86 88 88 83 83
43 27 32 34 40 54 74 82 85 77 74 78 85 90 90 92 84 87 85 86 91 91 73 71 87 81 75 73 79 85 92 88 89 86 82 88 86 86 85 88 87 86 86 82 87 89 88 89 88
30 36 40 32 36 46 84 86 88 83 79 81 82 85 89 90 93 95 96 97 96 95 95 95 95 95 96 81 74 83 89 87 90 86 83 78 89 91 89 86 80 80 87 86 89 89 84 84 87
23 28 31 42 42 53 80 98 87 75 77 77 79 84 85 88 91 94 96 96 97 98 97 96 95 95 96 97 96 72 79 85 89 91 84 82 83 89 83 76 74 71 83 89 89 88 78 85 85

GFSSGP_sfc_rhum_096.txt.gz
RH
71 67 66 74 94 98 86 66 56 50 46 35 38 45 52 54 60 83 77 75 77 82 79 78 82 76 74 79 75 73 72 72 73 77 76 76 76 76 76 76 76 75 74 74 71 71 72 69 69
68 61 68 92 96 98 82 62 57 50 46 45 47 54 62 81 65 81 87 75 78 81 84 82 82 78 77 80 76 76 78 78 73 74 74 76 76 76 75 76 74 75 74 74 72 72 72 70 68
58 51 88 98 96 92 78 58 50 49 42 43 53 53 59 78 71 73 73 75 77 82 88 78 81 81 78 78 78 76 74 76 75 74 74 75 74 74 75 74 74 76 75 73 70 71 73 70 68
65 87 92 94 93 74 65 60 42 48 46 46 52 72 60 52 60 68 70 69 78 86 86 78 77 76 76 76 77 78 75 77 75 74 73 72 73 74 74 73 73 71 71 70 70 70 70 68 66
68 87 98 96 89 69 66 44 42 48 55 55 56 70 68 55 59 63 63 65 83 92 87 77 81 78 75 75 76 76 75 76 76 75 73 72 73 73 72 72 72 72 72 71 67 66 70 69 70
86 90 96 95 80 71 66 60 44 47 51 58 63 67 71 55 58 57 61 73 77 85 84 80 77 76 76 76 76 77 76 76 74 73 74 73 73 73 73 72 71 70 70 71 71 70 70 70 70
80 95 94 96 97 79 68 67 54 54 55 57 50 70 65 57 59 62 70 75 78 81 84 86 82 77 75 75 76 76 75 74 73 73 73 72 72 72 72 72 68 69 69 71 70 72 70 71 69
76 94 95 92 91 89 85 76 76 55 54 44 46 70 73 60 59 63 69 77 78 81 83 93 91 87 87 83 75 74 75 74 73 72 73 72 72 72 72 76 73 69 68 68 70 70 72 70 67
58 94 92 90 87 81 82 69 78 73 48 44 42 50 52 53 58 68 76 81 82 80 88 92 92 95 94 88 76 75 74 75 72 74 72 80 86 79 80 76 72 69 69 72 70 73 73 69 70
76 94 73 68 63 74 68 72 80 74 57 56 53 47 47 49 61 68 77 84 88 86 85 88 90 93 91 72 90 92 82 86 90 89 88 93 90 86 77 74 70 68 74 69 69 71 74 80 88
81 92 74 56 58 61 66 70 68 79 76 50 57 54 49 52 58 62 68 70 76 76 84 81 86 86 86 90 96 95 90 91 91 83 88 88 83 89 97 98 96 97 82 86 81 89 91 83 89
72 66 75 62 61 60 63 62 69 67 69 55 48 47 48 52 54 60 63 66 67 71 75 75 76 83 83 86 96 90 90 86 89 88 90 88 90 93 94 96 95 93 95 92 92 92 92 86 79
62 62 80 69 54 58 58 71 69 64 57 46 37 42 44 47 50 53 59 61 63 70 69 74 76 78 81 88 89 87 86 82 81 84 82 84 84 93 92 96 94 96 95 95 94 94 92 88 80
57 62 73 65 56 56 68 70 56 66 62 38 36 43 42 42 48 57 59 64 64 66 69 68 74 71 78 84 81 82 83 76 76 77 78 83 87 92 90 97 88 97 95 85 94 92 90 90 71
47 57 58 58 67 59 57 74 66 60 62 38 36 40 43 43 55 58 57 61 63 62 64 71 75 77 87 82 78 78 75 74 77 81 81 83 89 89 92 96 96 96 97 94 94 90 89 82 67
50 61 72 70 59 53 66 87 66 62 71 44 37 38 37 43 53 52 53 56 59 63 67 69 55 72 80 88 85 76 76 76 78 87 84 80 83 85 96 94 95 95 98 97 96 92 84 80 71
60 72 77 76 66 53 73 88 69 66 66 41 38 41 44 48 49 49 51 52 58 58 61 70 74 75 77 88 78 78 78 76 84 80 87 88 88 90 94 93 95 95 97 98 91 90 82 78 78
35 67 74 75 82 71 84 83 67 67 61 42 40 46 42 46 47 48 51 50 55 61 60 70 76 81 80 90 87 88 83 85 80 79 88 88 89 85 94 95 94 91 90 92 89 80 78 76 72
24 27 74 80 78 76 82 82 76 73 67 56 43 50 39 42 42 46 48 50 55 60 58 69 80 85 86 85 92 94 95 92 92 90 85 87 86 80 89 92 91 90 85 87 88 86 76 80 80
25 34 75 74 73 78 80 81 75 74 81 55 50 49 40 39 43 50 50 51 56 63 60 76 77 80 83 86 90 93 97 95 94 91 86 88 86 84 86 86 88 88 90 89 87 84 84 84 78
20 25 68 72 69 68 72 90 90 71 68 54 50 45 39 40 45 54 56 52 55 66 72 73 82 73 84 89 96 97 94 93 95 93 92 86 84 87 88 86 91 87 91 91 88 81 75 79 81
25 17 41 75 74 93 66 96 90 80 76 56 56 57 46 38 42 52 56 58 54 63 70 74 80 81 88 92 89 87 87 93 95 92 93 92 85 86 85 91 84 91 91 89 90 77 88 87 89
15 13 36 57 70 74 82 84 93 84 82 68 65 57 51 42 40 46 54 57 55 61 71 68 77 82 90 87 88 87 85 92 95 94 90 92 91 84 82 80 84 89 89 88 87 88 87 94 90
10 39 44 64 68 79 78 78 98 91 81 67 58 59 52 48 51 41 47 52 58 58 70 70 77 81 86 87 90 86 87 92 94 93 96 96 94 94 88 86 89 87 88 84 86 88 87 90 92
15 34 62 75 77 63 63 81 78 70 65 63 59 59 79 78 57 50 49 55 59 62 71 77 77 83 89 87 90 90 90 90 89 88 95 94 95 94 90 92 91 92 86 81 88 92 87 88 88
23 30 47 68 59 51 54 73 76 69 69 65 71 75 76 79 81 74 66 58 58 60 68 72 82 82 93 90 91 89 90 94 95 86 93 95 94 90 87 91 93 90 88 88 90 89 90 88 90
23 35 28 41 47 53 85 85 69 82 88 88 84 82 85 79 81 80 80 74 55 60 66 69 83 84 89 92 90 89 93 91 82 84 84 94 93 90 84 88 90 88 90 87 91 92 90 91 89
22 27 32 41 46 65 92 93 95 87 96 90 92 96 94 90 84 86 87 86 90 87 79 82 83 87 90 92 85 90 92 91 92 92 90 90 88 91 93 91 90 90 90 89 91 91 90 91 91
32 37 34 35 41 70 93 94 86 89 87 96 96 94 95 95 95 97 97 97 97 95 94 98 98 96 97 95 96 95 94 90 92 92 89 95 91 92 92 90 91 91 91 90 90 91 90 87 90
29 33 39 41 36 76 93 98 86 88 89 89 95 94 93 94 97 96 95 97 97 97 98 98 98 96 97 97 97 97 94 94 93 93 92 92 90 91 87 87 88 85 86 90 94 91 84 88 86

GFSSGP_sfc_rhum_102.txt.gz
RH
79 72 72 79 96 98 86 75 64 55 52 46 42 53 63 75 77 78 93 86 85 88 85 80 81 76 74 75 74 75 79 77 76 77 77 76 77 77 76 74 74 74 74 70 69 70 71 72 72
74 69 78 95 96 92 82 78 70 51 46 43 47 62 70 93 83 95 93 85 84 88 90 86 82 76 74 72 71 71 73 76 77 75 76 75 74 76 74 74 73 72 73 72 70 71 70 70 69
70 62 90 98 96 89 84 72 65 53 46 42 68 68 76 87 76 88 87 86 89 96 92 84 76 79 74 75 77 76 70 74 74 76 75 76 76 74 74 72 72 74 73 70 70 70 72 70 70
72 87 90 95 90 74 73 66 51 52 49 61 70 85 77 68 77 86 85 88 95 95 89 78 78 77 77 77 74 77 74 72 75 75 74 75 75 74 74 73 72 72 74 69 70 67 66 67 68
78 89 96 96 89 76 66 56 51 59 58 60 60 84 79 85 80 85 89 88 94 96 91 84 78 76 76 76 74 75 74 73 75 73 74 74 73 73 71 70 70 71 71 70 68 66 66 67 70
92 89 94 94 88 88 61 60 61 63 66 68 71 74 93 85 86 86 86 92 90 95 90 85 78 75 76 76 74 75 76 72 71 72 70 73 75 73 73 71 68 68 68 68 69 67 70 72 73
91 94 92 89 84 94 69 63 69 64 67 69 60 88 92 89 83 84 89 95 94 92 92 90 84 78 75 76 74 76 76 73 72 73 73 73 74 73 72 72 71 69 69 66 66 66 69 69 72
89 94 90 88 96 90 75 69 65 66 72 55 62 88 90 88 80 85 93 97 97 96 92 94 94 91 89 89 75 75 73 72 73 73 73 72 73 70 71 77 74 68 68 67 66 68 69 70 71
71 96 94 86 90 89 78 72 72 64 63 59 58 66 74 78 84 93 98 99 99 94 97 97 95 94 92 88 80 77 72 73 74 75 78 88 94 91 81 75 71 70 70 69 67 69 71 73 69
78 95 76 77 78 85 75 64 69 67 70 75 80 74 79 83 87 92 97 91 93 99 98 97 96 95 92 79 95 95 87 91 94 93 92 95 92 88 82 74 72 72 71 69 72 71 73 77 83
83 92 83 83 81 67 72 71 60 70 80 72 92 89 86 86 87 88 92 94 95 98 98 97 97 95 94 97 98 97 91 91 91 90 92 90 93 92 96 97 96 94 79 88 79 87 88 78 82
84 72 73 86 71 66 68 74 66 74 74 71 76 78 80 86 88 86 88 92 95 97 96 95 95 96 94 98 98 94 91 89 89 88 89 92 92 92 94 96 94 92 93 89 90 85 85 81 81
67 72 77 68 62 68 61 69 79 88 65 68 70 73 79 81 82 79 77 83 89 94 91 93 94 96 93 95 95 93 92 88 86 88 88 89 90 90 87 92 92 95 92 91 92 91 86 83 72
54 63 63 74 78 67 75 73 66 87 70 68 70 76 76 75 75 77 77 84 86 86 88 88 91 92 92 94 93 92 91 88 89 93 88 86 89 90 90 91 83 95 91 84 91 91 88 82 69
66 77 66 78 75 70 65 83 85 88 78 70 70 70 72 70 72 72 74 79 81 82 83 87 88 87 90 91 90 90 88 83 88 94 86 84 90 89 89 93 94 94 95 91 93 88 81 73 66
78 72 82 85 75 73 69 91 88 89 89 67 67 66 68 67 69 70 72 76 79 82 85 84 70 81 87 92 90 86 85 87 89 87 88 86 85 90 89 88 91 92 94 91 93 84 81 79 74
62 85 81 81 79 73 73 94 82 86 80 66 66 63 64 65 71 71 67 72 77 81 85 85 83 88 86 90 88 86 84 88 95 92 93 88 86 88 90 91 92 92 93 94 84 89 84 80 78
50 78 74 72 77 78 84 82 75 73 62 62 63 62 63 64 65 67 68 67 73 79 82 82 87 90 88 93 92 92 87 90 96 92 91 89 92 89 91 91 90 89 86 91 86 85 79 80 76
28 62 83 81 89 84 90 82 76 75 58 68 60 60 67 61 58 65 63 74 72 79 82 86 89 92 92 92 95 96 94 91 93 96 91 91 87 87 89 92 90 89 85 89 88 87 83 78 79
45 75 95 88 83 84 85 86 72 80 71 72 61 58 64 56 68 62 68 68 70 76 83 87 89 93 89 90 93 92 96 95 94 95 92 89 86 84 86 90 88 88 90 90 88 86 82 78 81
33 44 88 82 85 89 88 92 88 79 67 62 65 53 54 65 67 71 72 71 69 75 81 84 90 91 90 91 95 97 95 96 95 94 93 91 86 82 88 87 91 92 91 90 90 82 82 82 81
29 26 63 80 81 95 78 95 96 80 87 75 58 54 59 62 62 67 70 70 68 69 74 84 90 91 89 93 90 89 88 94 95 93 92 91 88 87 84 88 88 91 89 90 91 80 87 86 86
25 22 62 74 88 81 78 84 87 91 93 91 81 66 55 57 62 66 66 65 64 64 70 80 90 90 92 92 90 89 90 92 94 95 91 91 91 88 84 87 86 90 88 89 89 90 89 92 87
27 63 72 78 86 91 75 75 90 96 84 83 72 61 52 53 61 61 60 59 62 65 67 82 88 90 93 92 91 90 90 90 94 93 95 95 94 94 90 86 87 88 88 86 88 90 88 90 90
27 63 96 96 96 87 84 84 79 86 73 71 74 61 51 52 59 60 63 60 63 67 71 80 86 87 93 92 92 89 88 89 91 88 94 95 95 94 91 91 91 92 89 87 89 90 89 90 86
36 45 75 80 88 77 83 85 73 84 81 67 61 62 60 62 64 63 64 58 60 68 69 72 84 85 93 92 92 90 90 97 97 93 95 95 92 88 87 91 92 90 87 86 87 86 88 87 88
30 47 46 58 60 82 93 85 80 86 81 78 85 80 73 65 68 66 72 73 67 64 72 67 77 76 92 92 92 92 93 91 88 92 90 95 93 90 86 88 89 88 89 89 92 88 86 87 86
29 27 40 48 60 77 92 93 84 96 95 95 98 97 92 86 84 83 81 77 79 75 74 75 79 80 86 91 91 89 92 91 91 90 90 92 91 88 88 92 91 92 89 89 92 93 89 89 87
38 43 46 46 59 75 93 88 88 91 94 96 95 94 95 94 91 94 92 91 88 92 89 90 91 93 94 93 93 93 92 89 91 89 89 91 90 92 93 93 93 91 92 90 91 93 90 88 88
40 40 41 46 65 86 83 92 88 91 89 94 97 96 97 96 97 97 96 93 94 95 97 98 98 94 96 95 94 93 92 92 95 92 90 91 92 92 94 93 94 91 91 90 91 89 89 88 89

GFSSGP_sfc_rhum_105.txt.gz
RH
61 56 55 72 85 78 70 65 50 45 40 35 32 38 43 59 60 48 58 63 56 54 60 63 79 75 74 75 77 78 75 76 77 77 77 76 76 76 74 74 72 74 71 71 71 73 73 73 74
56 60 66 92 81 77 74 62 46 35 32 33 45 46 56 79 67 72 62 61 54 53 59 58 82 76 73 73 73 74 74 72 75 76 75 75 76 75 73 71 73 72 72 71 71 69 68 67 66
55 58 87 85 84 83 72 57 39 34 35 38 61 57 64 77 65 62 57 58 54 59 58 63 77 76 73 73 73 70 73 74 74 75 75 75 74 73 73 71 73 72 72 71 71 71 72 71 70
56 71 78 85 83 70 63 52 35 41 34 53 56 71 66 56 58 66 58 54 54 58 54 67 79 75 77 77 75 72 71 73 73 75 76 75 75 73 72 74 73 72 70 70 69 68 69 69 70
60 72 85 87 85 66 52 46 38 42 42 54 52 75 73 73 62 61 60 54 55 53 48 57 78 77 76 74 75 74 72 74 74 75 75 75 73 72 72 71 73 70 70 68 67 67 68 70 73
82 73 86 89 83 74 54 47 45 49 53 63 59 59 75 70 64 64 56 57 51 52 56 57 74 76 77 75 76 73 72 73 73 72 73 72 73 72 73 70 71 69 69 68 68 69 71 72 73
87 97 86 83 85 87 62 52 55 55 54 56 46 60 85 73 66 61 59 58 51 58 58 60 54 67 76 74 76 74 72 73 73 72 74 72 72 72 71 71 70 68 66 66 67 69 68 70 72
73 79 86 92 86 90 69 59 58 55 61 45 42 66 84 69 64 61 60 55 57 58 60 67 66 63 63 64 75 73 73 74 74 77 73 70 70 72 72 75 73 68 66 66 68 68 69 70 70
61 90 81 89 89 87 70 60 60 48 50 46 50 46 51 62 62 63 62 58 60 65 64 68 63 64 72 71 70 72 73 73 74 74 81 74 66 63 69 72 72 70 69 67 68 70 71 70 69
62 79 80 80 84 80 65 60 56 58 59 65 65 61 61 63 63 58 52 62 68 68 64 68 65 62 66 60 76 75 68 64 67 67 72 63 62 69 60 67 74 70 68 69 72 74 71 60 52
62 80 78 88 83 80 68 58 47 62 68 60 64 66 63 62 60 49 50 51 60 66 68 67 68 70 67 74 68 63 61 63 66 72 66 68 66 66 67 67 57 58 70 49 52 54 52 56 50
71 68 70 88 83 79 73 58 70 64 58 52 54 58 60 58 48 46 47 55 62 65 67 66 66 72 77 79 64 60 59 58 58 64 70 69 60 65 68 61 62 61 57 62 62 51 62 59 59
60 66 71 81 66 56 68 64 76 73 62 58 57 56 54 51 54 52 49 55 58 61 64 65 70 77 78 72 64 61 62 56 57 60 66 60 59 64 60 67 59 62 56 57 61 61 58 57 52
56 56 63 69 71 58 74 75 62 77 58 60 56 53 53 57 58 57 57 57 59 59 62 63 67 73 71 72 75 69 63 61 60 61 61 68 60 66 60 59 58 57 57 56 62 65 57 51 48
54 65 62 65 66 66 73 81 85 75 57 61 58 56 56 54 54 54 53 57 55 57 61 65 66 66 71 71 70 66 60 56 58 63 68 67 67 68 69 62 63 62 68 68 64 59 54 45 43
61 60 70 74 67 74 72 94 94 88 69 61 61 58 59 56 53 51 52 51 54 56 65 65 54 61 63 70 69 64 61 58 57 57 60 64 65 68 67 59 61 64 65 60 58 53 47 47 46
51 58 68 82 78 78 82 95 91 86 76 58 59 58 56 57 55 54 50 51 53 59 65 66 64 65 65 74 65 66 67 60 60 59 59 69 68 71 65 60 64 69 61 60 52 55 56 53 48
54 61 60 77 75 72 72 77 86 86 79 59 55 53 56 54 54 52 51 50 52 58 63 65 63 71 73 70 72 63 60 63 66 62 61 70 66 71 69 64 69 65 57 57 55 64 57 56 54
36 39 66 81 81 80 81 76 94 91 71 67 63 59 54 52 48 49 51 53 53 57 63 66 70 75 72 73 66 66 61 65 65 64 70 71 69 72 73 63 68 63 59 66 68 58 61 49 55
45 56 72 77 80 78 85 81 80 86 80 58 62 53 50 53 49 54 53 51 51 58 64 70 72 77 73 67 68 62 68 82 70 71 76 69 68 71 68 72 65 68 61 71 71 68 51 52 58
27 39 68 61 72 77 82 90 86 79 71 66 58 49 46 46 48 54 61 52 52 56 65 69 73 75 72 71 72 75 73 73 79 77 67 67 68 65 71 69 69 71 62 57 68 65 68 53 58
28 23 54 68 61 61 62 93 88 79 89 80 60 53 46 44 46 48 51 53 52 55 58 66 72 75 72 76 70 81 65 87 88 89 70 66 70 67 67 70 70 73 62 70 67 61 65 64 59
24 21 55 53 62 61 74 78 73 82 85 80 73 50 42 44 44 47 50 53 49 52 56 61 71 77 74 77 72 63 67 68 83 66 82 75 80 74 66 70 72 73 60 71 73 73 72 60 58
41 44 54 60 65 71 55 63 79 87 71 67 63 62 43 41 45 51 46 56 54 50 54 59 72 78 77 77 75 78 77 76 66 67 68 85 67 80 76 69 73 73 69 69 66 74 71 67 65
32 42 52 61 66 46 53 63 42 63 59 58 56 56 53 44 44 48 51 54 57 59 55 57 69 76 75 76 74 73 77 75 76 72 63 68 62 64 75 81 75 66 73 69 71 75 73 69 62
28 27 33 54 49 44 63 62 45 58 53 52 53 49 52 48 44 47 51 51 58 56 58 57 63 71 73 74 76 76 76 65 64 69 65 63 66 72 67 73 74 70 70 69 72 62 62 68 62
20 22 20 33 41 41 60 59 53 65 66 56 55 58 56 54 49 50 54 55 56 66 60 59 66 70 69 66 72 76 76 74 68 74 72 65 72 64 67 69 70 70 72 71 72 62 71 70 69
16 14 21 28 46 46 60 63 56 77 67 58 60 60 53 49 55 62 68 56 56 62 60 64 62 67 70 67 69 69 72 73 72 72 75 77 72 73 74 74 72 73 72 73 76 75 76 75 63
20 20 23 21 30 33 46 51 59 66 70 74 69 62 61 59 64 69 68 66 79 75 75 67 67 73 86 66 72 76 75 70 73 74 76 74 73 75 75 74 75 76 76 75 77 77 74 75 73
22 17 19 21 38 42 46 49 71 64 70 75 79 76 68 60 61 63 71 84 81 92 92 84 85 77 72 82 72 70 71 74 75 75 75 77 77 75 78 77 78 74 73 72 78 72 71 74 72

GFSSGP_sfc_rhum_108.txt.gz
RH
54 37 37 48 71 59 48 48 30 32 29 24 23 24 35 42 40 48 30 35 36 38 45 56 78 75 75 78 78 74 75 76 76 77 76 76 75 74 74 74 72 72 73 72 73 74 74 73 71
32 44 49 59 68 60 52 38 34 27 26 22 29 32 38 56 40 39 39 34 35 34 36 44 82 74 73 74 75 74 72 74 76 75 75 76 75 74 72 73 71 73 72 71 69 67 67 67 67
40 44 62 64 58 68 54 33 28 26 23 35 44 37 44 56 38 35 33 35 34 37 38 55 76 72 71 71 70 73 72 73 74 75 74 70 72 72 72 72 71 72 72 72 72 72 70 69 70
40 50 53 65 66 62 41 29 26 27 33 39 41 55 48 35 39 34 35 33 35 37 37 67 74 74 76 74 70 71 71 70 75 74 74 71 72 74 73 72 69 72 70 69 70 70 69 72 70
41 55 70 71 67 54 36 27 27 28 39 41 38 51 50 44 38 36 37 33 34 31 34 47 77 76 75 75 74 70 70 70 74 74 73 72 71 73 73 71 70 71 69 68 68 70 72 72 72
67 49 66 86 77 58 39 29 29 28 36 44 44 43 48 43 40 38 34 34 27 27 31 44 73 75 75 74 74 73 73 73 73 72 72 75 73 72 72 71 70 68 68 68 70 71 72 72 71
87 82 77 74 85 65 51 35 34 38 43 44 34 41 56 43 40 37 35 31 31 32 40 44 44 67 74 74 72 72 73 73 73 73 73 71 72 70 70 70 68 67 67 68 68 68 70 71 69
62 76 70 69 86 73 51 44 41 41 42 32 29 45 60 44 40 36 34 32 34 34 39 44 54 51 60 49 73 72 74 72 70 72 70 70 68 71 70 75 72 67 67 66 67 67 69 71 69
49 84 70 70 79 75 46 51 47 40 42 35 35 30 39 41 38 36 36 37 37 42 39 37 40 50 57 56 61 69 73 72 74 70 71 68 70 53 52 72 70 69 66 67 69 70 70 69 71
50 65 60 63 72 67 51 48 46 45 42 41 35 35 39 40 39 36 34 38 39 45 38 46 43 55 45 40 61 61 48 42 45 46 53 44 48 74 50 65 71 67 67 70 72 70 64 63 32
46 67 57 73 78 62 47 45 39 44 48 41 46 44 42 40 37 31 32 34 37 40 41 42 48 49 42 50 42 40 40 44 50 55 48 48 43 43 40 43 41 45 60 37 45 45 36 43 34
55 53 48 66 78 65 54 43 53 40 40 37 37 37 38 39 32 29 31 33 39 42 45 40 44 50 49 44 38 39 40 40 42 49 54 52 44 46 45 40 43 46 40 47 46 37 48 44 44
47 59 63 76 78 66 78 56 61 52 41 35 34 36 36 34 31 30 30 34 38 40 41 42 48 58 59 54 42 40 43 38 41 43 48 42 43 49 44 50 42 44 40 41 44 43 43 44 39
41 51 67 81 75 78 64 63 54 53 39 39 37 35 31 31 32 35 34 38 38 41 43 44 48 58 54 54 56 48 42 44 40 40 48 53 44 49 44 44 40 41 40 40 43 47 38 35 34
52 55 64 75 61 64 73 69 72 51 40 39 36 34 34 35 36 38 37 38 38 40 43 47 50 50 56 58 55 45 40 38 40 42 53 54 49 58 54 45 41 42 50 52 48 42 40 32 31
46 52 70 81 70 62 55 74 79 62 43 38 35 34 38 38 34 35 34 34 38 41 47 48 39 46 51 54 60 46 42 39 39 40 44 53 56 57 56 43 42 46 46 41 38 34 33 34 33
35 52 68 90 81 86 87 84 83 67 44 39 36 34 38 39 37 37 34 36 39 45 48 49 47 47 51 60 50 48 55 42 41 41 42 57 56 59 48 43 48 55 43 40 35 36 37 37 33
38 51 57 76 79 82 86 92 84 81 51 41 37 35 38 37 38 38 34 36 40 45 49 51 47 55 57 55 57 45 44 45 44 42 43 57 53 59 52 47 53 48 42 39 38 49 41 38 37
28 32 64 66 66 88 84 89 89 75 57 42 38 36 35 35 34 37 36 35 39 45 50 54 57 62 56 53 47 45 44 45 45 44 55 58 56 60 63 45 53 49 44 51 52 42 48 34 38
26 31 56 66 64 70 77 81 85 84 65 41 39 34 33 35 34 37 38 37 36 44 49 58 59 65 67 49 49 44 46 44 44 46 55 57 57 60 59 58 51 52 45 53 56 57 35 36 43
29 33 42 56 72 74 73 78 96 92 74 48 38 34 31 34 34 37 40 38 37 43 50 55 60 62 68 54 53 56 74 72 70 63 49 50 56 55 63 57 58 56 51 42 53 50 56 37 43
23 25 36 47 50 67 63 82 83 93 85 63 47 39 32 34 34 35 37 38 37 40 46 53 57 61 59 67 56 65 62 75 46 51 46 50 58 54 54 58 58 64 46 57 52 46 50 56 42
23 21 33 35 36 40 47 58 70 82 87 82 67 41 32 31 33 32 35 38 34 38 42 49 59 66 59 70 70 70 55 45 45 47 60 64 62 56 52 58 61 62 46 59 58 58 61 44 43
23 27 33 38 36 34 38 48 74 61 56 46 60 42 34 30 30 31 31 35 35 35 40 45 61 69 65 67 64 69 63 57 64 62 71 48 47 49 58 56 64 62 57 58 53 61 59 59 54
30 33 46 52 44 40 30 41 35 44 47 40 38 47 38 30 30 32 33 40 42 39 41 45 58 68 65 62 61 63 64 64 64 63 48 55 48 49 57 60 64 56 64 59 57 65 61 56 52
24 31 33 54 43 33 42 40 36 37 40 39 35 37 42 34 29 29 34 36 52 41 42 44 54 63 62 62 64 64 68 50 73 57 45 45 69 48 54 56 55 58 60 58 62 51 47 52 49
20 24 19 23 22 33 43 38 40 48 44 41 39 40 40 41 34 33 33 36 40 41 44 46 51 59 58 55 62 65 62 60 75 60 72 49 56 46 55 54 55 57 57 60 63 48 57 58 57
12 14 22 22 32 34 37 36 28 53 53 44 42 41 39 47 44 37 34 38 39 39 42 46 47 55 54 52 55 53 54 59 60 61 62 64 59 61 60 59 57 60 61 61 65 56 57 61 49
14 15 13 13 17 23 30 32 33 46 46 43 40 39 40 42 49 52 49 44 47 45 61 65 50 55 56 51 53 53 52 51 58 64 54 58 63 71 60 59 62 58 58 63 68 62 56 60 59
10 13 12 15 24 21 22 42 49 46 43 45 45 42 38 40 40 53 74 70 76 65 62 72 60 61 58 56 57 55 54 54 51 57 53 57 59 65 62 60 65 59 57 63 65 61 50 59 58

GFSSGP_sfc_rhum_111.txt.gz
RH
53 36 32 40 82 65 44 34 22 24 23 18 16 22 32 37 39 47 26 28 31 33 46 56 77 77 77 77 73 75 76 76 76 76 75 74 74 74 72 73 74 73 73 74 74 73 72 73 74
29 30 39 52 81 55 40 27 27 23 19 19 21 24 36 40 27 30 31 30 29 30 34 46 79 73 74 76 74 73 73 75 75 75 75 73 74 74 71 72 72 73 72 70 68 67 66 70 71
38 31 65 79 74 65 39 27 24 20 20 24 29 34 35 35 28 27 27 28 33 47 45 56 73 70 69 70 72 72 72 73 75 73 70 74 74 74 71 72 72 71 74 72 72 69 69 68 70
38 53 46 71 57 49 28 24 21 23 26 26 33 44 27 27 27 25 26 31 38 41 44 63 72 75 74 69 71 71 70 74 73 73 71 72 73 73 69 69 70 69 70 70 70 71 71 69 70
43 58 72 70 52 39 23 21 22 30 30 32 30 35 35 30 25 26 31 36 42 40 37 47 76 75 74 73 69 69 70 74 74 73 72 72 74 72 71 73 72 70 69 69 71 71 71 69 70
62 54 72 72 76 39 22 21 22 29 32 34 35 36 38 28 28 28 35 30 21 25 34 44 72 74 73 72 72 73 74 73 72 72 75 74 75 73 70 71 68 68 69 69 70 70 70 69 70
57 67 64 73 89 61 28 23 24 32 34 32 26 40 34 30 28 28 33 21 23 33 38 40 45 66 72 72 72 73 73 73 73 73 72 76 74 72 70 69 68 68 68 68 68 69 70 68 70
53 54 62 57 81 75 38 28 32 33 39 24 23 40 39 33 27 25 22 25 36 44 43 70 47 48 54 51 72 72 71 71 70 70 71 73 72 70 72 74 71 67 66 66 66 69 70 70 71
44 73 64 62 65 70 43 41 34 36 32 28 27 28 29 28 25 25 27 27 35 40 54 37 56 48 65 58 61 67 69 71 72 67 71 71 46 48 55 72 69 66 66 68 68 68 69 70 73
48 72 62 47 56 67 43 41 42 38 36 34 29 28 29 28 28 28 29 29 33 45 41 44 37 42 53 39 54 52 50 52 43 44 71 59 49 80 45 63 68 66 68 70 68 66 69 70 44
40 60 57 58 61 48 43 39 33 36 43 31 35 34 31 29 28 26 27 26 28 43 46 44 49 58 45 48 43 44 48 42 47 61 72 51 54 44 35 46 47 50 65 56 61 52 42 33 26
48 43 50 59 61 52 41 37 40 39 34 29 31 30 30 29 25 24 25 26 28 32 45 38 36 63 53 34 33 48 52 44 50 65 53 49 54 38 37 35 43 46 53 41 91 34 38 36 34
42 44 50 56 66 56 45 48 43 38 30 29 29 29 28 26 24 24 24 27 29 32 37 34 41 73 47 40 37 50 44 62 44 40 41 74 58 43 40 42 38 46 48 36 47 36 37 37 33
38 50 55 59 72 60 52 48 39 36 30 30 29 28 25 24 23 26 27 30 31 32 34 35 56 65 46 45 48 54 61 42 48 38 41 52 38 51 42 42 37 37 46 48 50 46 34 32 30
49 59 62 72 71 69 53 51 53 34 29 31 28 27 24 23 25 28 28 30 31 32 35 42 49 40 46 48 48 58 34 45 56 42 48 49 47 51 49 40 38 37 44 48 41 38 33 27 27
48 57 75 76 79 83 68 70 69 36 32 30 27 25 25 26 27 28 27 27 32 36 42 39 31 38 42 47 46 61 59 61 57 40 44 48 52 52 54 40 38 40 45 42 32 35 28 27 27
44 56 75 89 83 86 76 69 66 51 30 28 27 25 27 31 32 30 26 28 32 39 43 40 40 44 44 54 58 57 48 60 58 57 45 52 51 53 44 36 45 55 43 34 37 32 51 30 27
38 48 57 85 86 86 85 74 75 66 37 31 28 27 34 36 32 29 27 28 32 39 42 41 39 49 52 47 52 62 62 62 40 63 64 52 49 51 51 43 47 57 42 36 47 60 36 35 32
39 42 68 61 75 85 91 88 74 60 62 42 34 32 36 36 31 30 27 28 32 38 43 63 63 57 50 48 61 65 65 63 64 66 49 52 49 53 57 61 49 54 70 58 44 48 47 36 33
25 74 76 65 79 82 93 90 81 82 51 47 45 33 33 33 32 31 29 28 29 37 45 68 58 58 57 45 68 58 69 60 66 66 51 49 54 55 50 66 51 73 43 52 53 55 36 31 35
19 48 63 64 77 78 87 94 92 71 63 54 39 35 35 35 32 31 39 30 30 36 42 50 63 60 60 79 50 55 59 60 52 61 46 49 51 50 56 53 65 54 55 46 52 45 53 48 36
25 32 54 57 57 72 52 96 91 87 75 71 56 35 34 32 39 29 34 40 33 35 37 49 53 62 54 60 73 63 55 65 51 47 45 56 50 48 51 52 54 60 94 60 48 41 57 62 42
24 18 79 40 41 50 59 70 97 90 84 66 56 44 33 29 32 32 33 38 37 34 35 40 52 60 59 60 64 54 70 50 42 54 68 61 58 51 47 56 57 60 59 56 58 54 63 43 62
18 21 28 36 36 44 46 48 78 85 77 62 54 44 37 45 27 48 32 40 41 30 31 38 52 61 60 60 61 68 82 78 80 51 51 47 56 48 53 50 57 60 57 55 51 55 56 63 60
19 24 58 74 51 45 38 38 44 53 41 42 45 50 36 39 37 32 40 40 37 35 31 36 52 62 59 59 57 58 60 57 59 59 51 64 57 62 58 57 61 54 61 55 55 62 61 54 56
20 21 54 57 52 50 28 37 58 34 34 39 34 47 46 31 32 34 38 52 31 32 33 34 49 59 58 55 59 58 61 49 47 53 88 41 47 44 67 54 54 54 54 55 58 50 49 52 48
17 24 20 44 26 34 42 30 39 31 34 33 35 43 42 35 28 25 30 33 33 35 36 38 50 55 54 50 56 60 60 58 54 71 57 66 52 51 50 49 53 53 55 55 59 51 53 56 55
11 13 20 22 39 48 52 58 30 44 38 34 33 43 36 37 39 36 24 26 42 31 33 36 43 51 50 47 50 51 52 55 56 55 59 70 94 60 59 53 51 55 55 56 60 58 55 57 50
11 12 14 14 18 31 41 51 33 42 40 40 33 33 42 36 36 33 30 37 33 38 44 37 42 50 50 47 49 49 46 46 51 53 54 55 55 58 60 59 57 57 57 56 62 68 66 57 58
8 10 10 14 23 15 17 50 33 31 34 33 32 31 30 37 34 33 31 36 42 46 50 52 44 47 50 57 57 51 49 48 45 50 52 53 60 59 60 59 62 60 57 69 61 58 56 60 58

GFSSGP_sfc_rhum_114.txt.gz
RH
56 43 40 51 88 80 43 31 21 22 21 18 22 31 50 47 39 60 31 34 37 44 58 66 80 76 76 75 77 76 76 77 78 78 78 77 76 77 75 75 75 75 74 74 74 74 74 72 70
35 33 45 88 97 63 39 25 25 22 18 23 30 29 32 39 30 34 35 32 35 40 48 58 80 78 76 74 75 76 75 75 76 76 76 78 75 77 74 74 74 74 74 69 66 68 69 72 71
42 36 83 96 88 73 37 25 23 21 19 30 35 28 31 37 30 31 37 40 31 44 51 63 74 72 74 74 74 74 74 75 74 74 74 78 74 74 72 73 74 73 73 71 70 70 68 71 70
38 53 57 96 85 45 26 24 20 26 26 30 28 35 26 25 30 32 46 74 47 47 48 68 74 74 70 74 73 72 74 74 76 76 76 75 75 72 70 69 69 71 72 71 72 70 68 70 68
46 60 93 89 63 43 22 21 24 28 34 43 28 37 35 28 27 32 34 37 42 43 46 62 76 75 73 70 71 71 75 74 77 77 75 75 74 71 70 70 70 70 71 71 71 69 69 69 67
70 69 79 74 85 63 21 22 31 37 37 42 33 36 36 26 34 31 30 43 36 38 47 56 74 75 73 72 72 74 75 75 75 76 76 76 76 73 72 72 72 69 69 69 69 68 69 70 68
64 78 66 74 85 75 25 21 37 31 30 31 29 40 34 31 32 26 36 36 33 41 44 52 57 70 73 75 74 74 75 75 76 74 74 76 74 72 74 75 72 68 68 69 69 69 69 69 66
46 67 64 63 81 85 39 33 36 30 34 24 26 38 38 34 26 28 32 38 35 48 78 64 54 56 62 62 72 72 72 73 73 73 73 77 74 70 70 76 74 68 67 67 69 70 70 70 68
40 74 71 63 73 84 61 41 47 34 34 27 28 28 27 25 26 33 50 39 44 52 76 56 46 58 66 67 66 70 71 72 73 70 74 77 64 61 63 73 72 67 67 68 69 71 71 71 70
56 72 61 49 54 72 52 57 44 38 31 30 32 28 24 24 24 28 38 39 45 48 56 48 52 54 55 44 69 75 61 60 78 80 85 94 66 76 56 68 68 67 68 67 69 72 72 70 60
49 69 52 49 53 68 60 38 30 33 40 32 38 31 27 26 27 26 27 34 44 57 58 54 59 60 59 56 63 90 82 93 96 82 86 88 57 58 57 69 64 68 69 85 70 63 66 68 65
51 45 51 52 55 74 60 39 37 32 38 28 29 28 27 26 26 25 26 39 42 43 48 41 53 63 57 52 61 66 63 76 94 92 93 98 77 68 58 62 64 73 86 72 86 61 57 49 48
45 49 50 52 52 64 65 43 44 48 35 27 28 28 26 25 24 24 25 34 39 43 46 54 57 65 60 62 62 59 56 58 67 93 87 84 67 69 62 67 84 88 90 90 77 70 51 54 47
46 48 52 60 56 61 47 45 38 44 26 28 30 29 25 23 23 26 27 30 39 41 48 55 63 56 59 67 73 76 69 55 63 66 90 90 68 72 64 65 62 80 80 86 72 69 58 62 46
41 55 58 62 70 60 44 48 43 30 26 30 28 27 24 23 24 27 29 31 34 36 51 61 62 50 58 61 72 65 60 50 55 58 66 62 66 69 68 66 70 64 68 63 63 64 53 51 45
44 66 81 74 73 78 64 63 48 29 30 30 27 25 25 24 24 27 27 28 34 41 60 58 38 43 51 61 69 64 56 63 64 58 61 64 63 64 72 64 70 62 67 71 71 65 62 56 56
46 67 92 94 87 89 76 67 47 40 28 29 27 24 23 30 28 28 26 30 38 46 50 56 52 53 57 70 66 66 65 67 64 69 58 67 64 63 74 70 68 67 71 71 65 64 67 61 52
50 47 72 89 94 92 89 86 46 60 48 28 27 25 27 30 30 28 26 34 38 44 50 56 57 71 67 74 76 63 66 68 65 72 67 64 66 63 76 70 65 84 80 69 75 61 66 66 64
31 47 77 75 85 87 95 94 78 68 63 43 30 29 37 32 29 27 32 37 38 42 55 58 65 74 66 68 74 68 69 70 72 68 67 69 67 62 72 77 77 90 88 81 78 80 73 68 63
29 39 77 80 86 82 91 88 84 80 70 50 37 34 35 37 51 30 33 35 37 51 66 70 72 72 75 72 77 75 74 71 78 70 68 72 68 66 66 76 84 96 89 72 78 85 74 70 68
32 33 64 79 87 79 82 95 91 79 79 70 54 35 35 47 59 33 34 34 43 57 64 66 76 71 75 71 84 86 84 78 76 76 66 62 66 65 68 66 84 90 92 74 76 75 78 78 76
28 51 66 90 87 85 69 93 93 85 84 86 74 39 48 61 32 34 32 36 36 56 57 68 71 70 68 74 82 87 71 81 68 76 79 72 64 69 63 67 77 82 89 89 80 63 77 84 81
35 32 62 69 86 70 76 82 94 88 88 84 68 46 41 43 34 48 29 40 39 38 47 59 76 80 77 74 74 84 77 70 72 75 82 79 75 70 59 71 68 88 93 88 75 75 82 86 87
22 38 49 77 97 90 62 60 77 94 74 58 52 48 44 37 35 42 54 35 38 38 44 52 73 78 80 78 76 76 87 93 88 82 88 70 68 67 69 69 80 80 86 83 73 77 78 83 95
21 26 65 86 78 72 50 54 58 63 52 44 50 49 40 44 38 36 49 59 49 55 48 55 69 75 76 73 70 76 91 94 83 80 80 89 74 73 78 79 79 74 80 80 74 78 79 78 80
19 19 40 60 67 67 56 58 65 44 41 42 39 44 40 40 45 47 41 54 65 53 55 51 68 73 72 70 73 79 80 79 69 79 88 88 86 72 77 74 77 73 73 72 73 76 75 75 73
16 21 17 38 78 58 81 88 40 42 41 44 45 46 48 58 58 43 48 46 58 55 52 59 69 69 67 63 71 72 73 74 80 84 80 88 88 69 73 69 71 69 70 70 75 76 78 75 76
12 11 19 34 65 60 79 77 96 51 44 40 42 41 42 44 66 53 48 43 50 53 44 53 60 66 63 60 64 66 69 72 78 78 85 86 91 89 88 75 73 73 73 73 77 80 77 73 73
11 13 13 13 28 57 57 49 64 67 82 45 44 39 38 34 39 49 58 53 49 43 46 54 56 62 61 57 62 64 61 63 69 71 73 78 89 79 86 73 68 74 74 74 77 78 78 75 77
9 11 10 14 24 20 25 28 45 58 58 39 45 43 41 38 37 41 42 59 56 57 63 85 59 59 58 62 69 63 63 63 62 67 68 76 81 78 81 78 77 72 73 76 77 77 70 73 71

GFSSGP_sfc_rhum_117.txt.gz
RH
71 61 57 80 95 92 68 34 26 37 38 30 34 35 39 46 50 82 54 59 62 74 78 76 80 77 77 78 78 78 77 77 78 79 78 77 76 76 75 75 75 76 75 74 74 72 70 71 70
49 41 65 95 97 80 51 32 36 45 36 31 34 38 44 54 43 54 55 54 62 70 77 80 83 80 76 78 79 79 76 77 77 78 79 77 76 77 76 71 72 73 72 69 70 72 68 68 71
52 43 90 97 91 76 47 30 41 42 31 33 38 36 41 52 44 50 47 51 57 70 76 77 80 81 75 76 76 78 78 75 76 77 75 76 75 75 74 74 73 74 73 72 69 71 69 71 72
53 75 94 99 84 61 32 28 27 35 32 31 35 43 38 43 48 55 47 59 66 72 76 76 73 74 75 75 75 75 75 74 76 78 76 76 73 73 72 71 72 72 73 72 69 70 68 69 70
54 96 95 95 73 58 26 40 44 42 37 37 36 46 60 50 49 47 54 57 63 74 78 77 79 74 74 74 74 76 75 74 78 77 75 75 73 69 71 71 71 72 71 72 68 68 67 68 69
81 87 96 93 71 63 45 61 44 46 38 37 41 47 58 47 50 50 48 55 55 70 76 74 76 76 75 73 74 76 74 75 76 76 74 70 72 74 75 71 70 70 68 67 68 68 68 67 65
71 90 84 78 83 72 50 57 47 42 38 39 36 55 52 46 44 45 46 49 55 63 73 78 76 72 74 75 75 75 75 75 75 75 75 73 73 74 74 75 70 68 69 68 67 67 67 65 62
69 85 71 74 81 77 58 46 46 37 41 31 33 49 59 42 43 40 43 48 69 63 74 77 77 81 84 79 74 74 74 75 74 74 74 74 72 70 71 78 74 69 69 69 70 68 66 63 63
48 90 86 77 73 72 65 52 47 35 35 33 30 41 40 38 41 51 60 67 73 71 80 81 70 83 86 82 72 75 73 73 76 78 76 83 82 79 75 74 71 67 67 67 69 69 67 68 68
68 85 72 79 57 72 76 55 43 52 46 37 35 38 31 44 48 49 60 74 76 77 78 88 76 74 75 61 84 90 83 92 91 94 87 93 92 89 75 74 68 67 67 67 67 68 68 69 77
54 76 57 67 58 64 73 63 37 57 55 36 38 35 33 41 47 46 55 60 76 76 86 78 66 68 70 72 91 94 91 96 95 93 98 98 97 86 86 90 81 84 74 85 80 74 87 76 75
61 50 50 57 62 65 76 76 64 49 44 35 32 31 29 34 46 45 52 56 61 62 64 58 65 70 64 89 96 98 96 79 96 95 91 99 99 82 79 88 94 96 94 84 85 91 72 71 74
56 56 56 54 65 66 80 81 63 50 38 32 30 29 32 34 33 42 48 54 60 59 59 59 60 70 58 73 82 88 96 92 90 92 94 96 96 92 84 91 94 90 93 94 78 83 72 68 50
56 74 59 64 71 69 71 88 56 51 38 34 32 30 32 33 33 45 46 50 54 60 64 67 63 66 64 69 75 92 95 95 96 98 95 92 95 74 74 88 82 93 93 88 79 71 69 62 52
56 70 68 72 77 74 72 81 56 46 35 36 34 32 29 30 32 45 45 50 55 62 62 69 64 63 63 72 66 87 92 94 96 89 90 78 79 67 73 90 82 83 83 77 71 66 68 62 56
71 74 88 79 76 78 75 75 59 42 36 39 35 32 28 31 34 38 39 45 60 62 68 59 48 58 64 65 74 71 71 62 64 74 76 68 66 68 86 80 81 75 78 73 78 72 64 63 64
77 90 91 90 88 83 82 71 58 51 35 38 35 32 30 32 40 36 38 50 58 65 65 64 59 59 80 80 75 74 64 72 69 71 73 68 66 68 84 85 84 86 82 88 86 75 67 71 65
89 89 78 92 92 92 89 89 72 66 58 39 35 29 38 35 41 33 45 46 51 64 61 64 67 74 74 78 86 76 75 78 75 73 75 75 73 69 80 85 77 87 89 84 88 71 78 70 62
43 62 83 90 87 91 93 90 79 71 72 68 42 31 41 36 36 36 46 46 50 58 57 63 73 84 74 87 85 86 74 84 82 78 70 74 73 69 85 87 74 86 92 92 88 78 78 74 76
49 70 86 87 87 86 94 89 83 79 75 75 73 41 40 40 41 47 48 47 50 67 66 74 75 80 81 87 86 85 80 82 83 86 76 78 74 71 90 82 82 83 93 92 82 83 87 80 85
62 62 78 83 87 87 89 92 92 79 77 71 70 56 40 44 52 49 45 46 57 66 70 77 79 82 87 85 88 87 86 91 89 85 87 78 69 73 87 83 86 90 94 93 93 86 82 90 88
70 71 69 86 83 94 86 96 94 86 88 79 76 75 47 51 41 47 46 52 61 63 64 74 78 81 78 85 87 78 84 92 86 81 80 78 76 72 71 88 94 89 84 90 94 88 88 92 96
69 69 68 68 86 92 90 99 91 91 90 85 77 68 58 51 36 48 45 52 56 61 66 68 79 85 83 84 86 92 90 89 91 90 84 86 82 73 67 82 83 79 80 89 91 84 91 92 93
53 67 81 85 92 97 76 86 95 95 81 74 66 65 62 62 52 43 54 50 58 56 61 71 79 88 87 88 85 87 86 87 92 91 93 88 83 82 78 77 88 89 88 90 90 88 85 81 90
49 61 89 95 97 95 79 84 80 74 63 55 55 64 67 71 53 51 59 62 56 64 65 72 82 87 83 86 84 86 84 85 86 87 92 91 92 90 82 88 89 90 87 84 84 85 83 88 87
54 56 80 78 86 87 85 91 74 55 54 47 51 51 53 62 44 49 50 62 60 64 74 67 80 91 81 85 87 92 90 90 94 91 92 94 90 86 82 85 86 82 82 78 83 83 87 80 86
30 38 26 87 83 84 87 80 78 54 58 49 52 51 55 49 50 50 62 55 72 58 73 76 84 85 84 84 88 88 91 89 88 89 86 92 90 88 89 86 83 76 81 79 83 85 85 81 83
32 18 40 64 85 84 87 90 91 80 56 51 46 48 50 63 65 58 63 55 64 57 66 71 81 79 78 83 84 81 83 85 88 92 88 93 90 83 75 69 84 83 80 81 85 87 80 85 82
19 23 29 36 51 75 73 85 79 71 65 70 60 43 46 55 58 58 71 62 58 58 56 67 72 81 77 77 78 82 85 84 82 86 86 94 91 82 77 74 86 82 77 78 82 86 78 82 84
16 20 20 28 29 44 64 56 49 60 65 56 64 54 42 52 50 47 60 64 62 69 66 80 78 78 74 77 77 83 82 80 84 82 80 94 87 87 90 91 86 83 84 87 87 84 81 82 83

GFSSGP_sfc_rhum_123.txt.gz
RH
74 68 67 90 91 92 71 61 45 49 49 41 41 50 60 68 57 74 79 78 82 86 84 80 81 77 77 79 79 77 76 76 77 74 73 72 72 75 75 75 75 75 74 73 71 72 72 74 72
64 60 71 96 87 81 81 54 51 48 44 43 47 51 64 81 79 86 88 77 79 84 90 87 83 80 79 78 78 77 76 76 74 76 76 75 75 75 74 74 75 73 71 72 71 71 72 70 72
55 60 89 94 91 80 77 51 52 46 40 44 54 53 65 85 80 78 78 78 82 91 93 89 80 78 78 78 77 77 74 74 77 77 76 75 75 74 71 68 69 71 71 70 71 71 70 68 70
72 83 87 91 81 69 54 50 44 46 47 48 57 70 63 66 66 76 73 84 94 96 93 81 78 76 76 77 75 75 76 74 76 76 74 73 72 71 72 71 73 68 71 69 71 71 72 71 69
82 93 93 90 76 70 47 45 44 49 53 54 55 76 83 66 68 71 82 84 94 96 92 82 77 76 76 77 75 75 76 75 76 75 74 74 70 70 71 71 71 69 68 70 69 70 70 71 71
93 91 92 86 76 68 52 46 42 55 57 63 69 77 89 69 71 80 81 88 84 89 86 83 76 75 75 75 75 74 75 75 76 74 72 71 71 72 71 70 70 69 66 66 67 68 68 69 73
86 92 91 84 79 69 57 44 55 55 55 58 56 89 92 81 78 80 84 81 84 88 90 86 83 75 75 74 77 74 76 76 74 73 74 74 74 71 71 70 66 65 64 64 65 66 66 66 73
75 84 81 82 80 84 62 54 50 52 62 47 53 90 93 82 78 80 84 92 94 93 92 92 90 88 90 82 75 74 76 76 72 72 74 73 72 70 70 76 72 68 66 64 64 65 68 68 68
73 92 94 88 87 77 64 53 48 43 52 49 48 61 66 72 72 81 91 96 96 94 96 96 96 95 94 90 78 77 75 75 74 74 76 87 94 89 82 73 69 68 68 69 70 68 67 68 72
77 90 86 72 72 87 76 55 52 53 54 58 60 57 62 70 74 84 90 96 97 98 97 97 96 96 94 76 96 97 93 94 95 95 92 97 96 95 82 76 69 68 69 70 73 72 72 76 84
71 74 65 72 65 72 76 54 43 53 58 56 71 66 70 70 81 79 81 89 92 91 95 96 96 95 94 96 97 98 94 96 94 88 92 95 96 97 96 97 96 92 79 90 85 79 90 87 87
72 58 67 67 62 68 71 60 65 57 54 49 58 59 63 71 74 73 76 80 85 91 88 90 91 91 96 98 98 96 95 92 94 89 90 95 98 94 94 93 94 94 98 87 87 86 79 79 75
68 63 76 75 67 70 70 78 82 68 55 50 54 58 63 64 69 67 64 74 80 84 84 84 86 94 95 96 98 96 93 93 92 90 92 96 94 93 91 94 94 90 95 94 88 84 84 80 76
68 75 75 78 84 76 75 87 82 61 59 51 56 59 61 63 68 68 68 70 79 77 79 79 77 91 92 96 96 94 95 93 95 94 92 90 94 94 92 92 87 93 95 88 83 87 79 80 67
71 80 79 81 79 81 66 79 87 73 56 54 54 55 56 59 61 66 65 71 73 74 75 78 79 83 93 92 93 93 94 91 96 91 87 85 88 94 90 92 90 91 92 87 91 84 81 76 65
72 73 88 86 82 77 82 86 81 74 52 51 53 54 55 58 57 59 62 66 69 74 75 75 62 78 89 91 93 96 97 94 94 93 89 85 88 88 91 90 89 89 92 93 87 84 80 77 83
83 86 89 90 84 80 83 92 86 70 47 48 44 42 51 57 60 60 62 63 70 70 76 76 78 81 82 92 92 94 92 93 86 88 94 91 84 90 94 93 92 88 92 92 91 85 81 77 76
78 91 83 92 86 86 82 94 86 85 75 49 44 47 51 61 60 58 60 62 69 72 73 72 80 81 84 90 92 92 94 90 90 90 91 81 86 90 92 81 79 89 90 90 88 83 86 77 75
70 79 88 87 84 85 88 88 85 90 86 74 72 51 59 61 56 55 60 62 68 68 76 73 84 88 86 93 96 95 93 86 91 87 83 83 83 86 89 88 74 89 93 94 91 92 84 83 88
66 84 90 84 88 92 94 91 91 85 80 78 81 61 54 54 59 63 64 65 65 69 75 81 83 82 86 85 91 88 89 92 93 87 92 86 84 87 86 87 80 92 88 87 92 92 90 88 92
74 81 83 84 88 85 93 93 96 91 79 79 73 72 50 58 64 68 65 68 63 69 78 80 88 82 90 88 94 96 92 95 94 94 94 90 83 87 87 84 88 92 89 91 94 92 89 93 93
83 62 68 74 92 95 86 96 94 95 88 83 78 79 55 62 63 64 63 68 64 67 72 82 87 89 88 91 89 87 86 93 95 93 91 87 88 88 89 85 88 90 83 92 95 90 92 91 92
66 62 73 76 90 87 90 98 84 93 93 85 81 78 70 57 60 61 60 64 63 64 68 79 86 92 91 91 88 91 90 91 93 93 89 91 93 88 87 89 90 77 92 91 92 86 82 91 94
60 74 78 85 87 94 85 88 85 95 82 77 70 66 72 64 60 57 54 62 64 62 67 78 87 92 93 91 90 89 89 89 94 95 94 94 94 92 88 89 92 88 93 92 93 92 75 83 92
68 83 91 87 95 93 92 94 81 68 68 66 73 62 71 62 58 61 61 68 72 68 72 81 86 92 91 89 90 90 89 90 89 94 97 96 96 95 92 93 95 94 92 90 93 94 90 85 90
73 64 67 77 88 85 89 93 70 52 51 54 57 56 73 68 56 62 61 67 72 70 77 74 87 86 92 88 91 92 91 92 93 94 97 96 93 90 87 93 92 89 87 88 92 93 94 92 94
66 68 55 81 90 90 90 78 63 59 55 57 55 59 71 68 63 64 60 65 72 71 78 75 88 86 93 89 91 94 92 87 93 94 93 95 94 90 89 90 90 87 91 90 92 93 90 89 92
51 46 62 78 84 88 85 85 80 66 69 70 60 64 67 72 75 70 63 64 66 67 73 77 86 85 86 93 90 90 90 87 91 95 94 92 94 93 94 93 94 90 88 90 92 93 90 91 94
26 32 44 58 78 78 78 77 72 64 71 73 67 62 64 65 75 64 72 66 67 67 73 78 83 85 89 91 94 92 93 92 94 94 92 92 93 93 95 92 86 88 88 90 94 93 90 88 90
23 31 29 29 29 72 66 51 64 63 74 64 63 59 58 60 61 69 67 80 75 74 78 78 81 85 77 81 95 93 93 94 94 94 91 92 95 92 89 88 88 90 91 92 94 89 87 87 87